Time,TemperatureF,DewpointF,PressureIn,WindDirection,WindDirectionDegrees,WindSpeedMPH,WindSpeedGustMPH,Humidity,HourlyPrecipIn,Conditions,Clouds,dailyrainin,SolarRadiationWatts/m^2,SoftwareType,DateUTC
2013-08-04 00:00:00,83.0,79.1,29.95,ESE,117,10.0,17.2,88,0.00,,---,0.00,0.00,VWS V14.01,2013-08-04 05:00:00,
2013-08-04 00:02:00,83.0,79.1,29.95,ESE,119,6.0,11.2,88,0.00,,---,0.00,0.00,VWS V14.01,2013-08-04 05:02:00,
2013-08-04 00:05:00,83.4,79.5,29.95,SSE,150,8.0,14.2,88,0.00,,---,0.00,0.00,VWS V14.01,2013-08-04 05:05:00,
2013-08-04 00:07:00,83.4,79.5,29.95,SE,141,6.0,11.2,88,0.00,,---,0.00,0.00,VWS V14.01,2013-08-04 05:07:00,
2013-08-04 00:10:00,83.2,79.3,29.95,SSE,148,3.0,14.2,88,0.00,,---,0.00,0.00,VWS V14.01,2013-08-04 05:10:00,
2013-08-04 00:12:00,83.2,79.3,29.95,SE,136,3.0,6.2,88,0.00,,---,0.00,0.00,VWS V14.01,2013-08-04 05:12:00,
2013-08-04 00:15:00,83.0,79.4,29.95,SSE,148,13.0,14.2,89,0.00,,---,0.00,0.00,VWS V14.01,2013-08-04 05:15:00,
2013-08-04 00:17:00,83.0,79.4,29.95,SSE,154,12.0,14.2,89,0.00,,---,0.00,0.00,VWS V14.01,2013-08-04 05:17:00,
2013-08-04 00:20:00,82.8,79.2,29.95,SE,129,6.0,16.2,89,0.00,,---,0.00,0.00,VWS V14.01,2013-08-04 05:20:00,
2013-08-04 00:22:00,82.8,79.2,29.95,SSE,149,10.0,13.2,89,0.00,,---,0.00,0.00,VWS V14.01,2013-08-04 05:22:00,
2013-08-04 00:25:00,82.8,79.2,29.95,SE,139,10.0,15.2,89,0.00,,---,0.00,0.00,VWS V14.01,2013-08-04 05:25:00,
2013-08-04 00:27:00,82.8,79.6,29.95,SE,131,4.0,11.2,90,0.00,,---,0.00,0.00,VWS V14.01,2013-08-04 05:27:00,
2013-08-04 00:30:00,83.0,79.4,29.95,SE,141,10.0,14.2,89,0.00,,---,0.00,0.00,VWS V14.01,2013-08-04 05:30:00,
2013-08-04 00:31:00,83.0,79.4,29.95,SE,144,10.0,12.2,89,0.00,,---,0.00,0.00,VWS V14.01,2013-08-04 05:31:00,
2013-08-04 00:35:00,83.2,79.6,29.95,SE,134,14.0,16.2,89,0.00,,---,0.00,0.00,VWS V14.01,2013-08-04 05:35:00,
2013-08-04 00:37:00,83.2,79.6,29.95,SE,144,9.0,17.2,89,0.00,,---,0.00,0.00,VWS V14.01,2013-08-04 05:37:00,
2013-08-04 00:40:00,83.6,79.7,29.95,SE,124,8.0,17.2,88,0.00,,---,0.00,0.00,VWS V14.01,2013-08-04 05:40:00,
2013-08-04 00:41:00,83.6,79.7,29.95,SSE,162,3.0,11.2,88,0.00,,---,0.00,0.00,VWS V14.01,2013-08-04 05:41:00,
2013-08-04 00:45:00,83.4,79.5,29.95,ESE,117,9.0,13.2,88,0.00,,---,0.00,0.00,VWS V14.01,2013-08-04 05:45:00,
2013-08-04 00:46:00,83.2,79.3,29.95,SE,142,8.0,11.2,88,0.00,,---,0.00,0.00,VWS V14.01,2013-08-04 05:46:00,
2013-08-04 00:50:00,83.0,79.1,29.95,SSE,151,4.0,11.2,88,0.00,,---,0.00,0.00,VWS V14.01,2013-08-04 05:50:00,
2013-08-04 00:52:00,83.0,79.4,29.95,SE,126,8.0,12.2,89,0.00,,---,0.00,0.00,VWS V14.01,2013-08-04 05:52:00,
2013-08-04 00:55:00,82.8,79.2,29.95,SE,130,5.0,12.2,89,0.00,,---,0.00,0.00,VWS V14.01,2013-08-04 05:55:00,
2013-08-04 00:57:00,82.8,79.2,29.95,SE,124,5.0,9.2,89,0.00,,---,0.00,0.00,VWS V14.01,2013-08-04 05:57:00,
2013-08-04 01:00:00,82.6,79.0,29.95,SE,144,6.0,13.2,89,0.00,,---,0.00,0.00,VWS V14.01,2013-08-04 06:00:00,
2013-08-04 01:02:00,82.6,79.0,29.95,SSE,153,7.0,11.2,89,0.00,,---,0.00,0.00,VWS V14.01,2013-08-04 06:02:00,
2013-08-04 01:05:00,82.6,79.0,29.95,SE,144,6.0,14.2,89,0.00,,---,0.00,0.00,VWS V14.01,2013-08-04 06:05:00,
2013-08-04 01:07:00,82.6,79.0,29.95,SSE,157,6.0,8.2,89,0.00,,---,0.00,0.00,VWS V14.01,2013-08-04 06:07:00,
2013-08-04 01:10:00,82.6,79.0,29.95,SE,142,7.0,14.2,89,0.00,,---,0.00,0.00,VWS V14.01,2013-08-04 06:10:00,
2013-08-04 01:12:00,82.6,79.4,29.95,SE,140,7.0,8.2,90,0.00,,---,0.00,0.00,VWS V14.01,2013-08-04 06:12:00,
2013-08-04 01:15:00,83.0,79.4,29.96,SSE,153,3.0,10.2,89,0.00,,---,0.00,0.00,VWS V14.01,2013-08-04 06:15:00,
2013-08-04 01:17:00,83.0,79.4,29.96,SSE,150,2.0,8.2,89,0.00,,---,0.00,0.00,VWS V14.01,2013-08-04 06:17:00,
2013-08-04 01:20:00,82.8,79.2,29.96,SSE,147,6.0,12.2,89,0.00,,---,0.00,0.00,VWS V14.01,2013-08-04 06:20:00,
2013-08-04 01:22:00,82.6,79.0,29.96,SE,140,9.0,10.2,89,0.00,,---,0.00,0.00,VWS V14.01,2013-08-04 06:22:00,
2013-08-04 01:25:00,82.6,79.0,29.96,SSE,153,4.0,10.2,89,0.00,,---,0.00,0.00,VWS V14.01,2013-08-04 06:25:00,
2013-08-04 01:27:00,82.6,79.0,29.96,SSE,153,9.0,12.2,89,0.00,,---,0.00,0.00,VWS V14.01,2013-08-04 06:27:00,
2013-08-04 01:30:00,82.6,79.0,29.95,SSE,167,4.0,12.2,89,0.00,,---,0.00,0.00,VWS V14.01,2013-08-04 06:30:00,
2013-08-04 01:32:00,82.6,79.0,29.95,SSE,159,3.0,8.2,89,0.00,,---,0.00,0.00,VWS V14.01,2013-08-04 06:32:00,
2013-08-04 01:35:00,82.8,79.2,29.95,SE,142,7.0,13.2,89,0.00,,---,0.00,0.00,VWS V14.01,2013-08-04 06:35:00,
2013-08-04 01:37:00,82.8,78.9,29.95,SSE,153,5.0,8.2,88,0.00,,---,0.00,0.00,VWS V14.01,2013-08-04 06:37:00,
2013-08-04 01:40:00,82.8,78.9,29.95,SSE,150,4.0,13.2,88,0.00,,---,0.00,0.00,VWS V14.01,2013-08-04 06:40:00,
2013-08-04 01:42:00,82.8,78.9,29.95,SSE,158,5.0,8.2,88,0.00,,---,0.00,0.00,VWS V14.01,2013-08-04 06:42:00,
2013-08-04 01:45:00,82.8,78.9,29.95,SSE,154,9.0,11.2,88,0.00,,---,0.00,0.00,VWS V14.01,2013-08-04 06:45:00,
2013-08-04 01:47:00,82.6,78.7,29.95,SSE,157,7.0,11.2,88,0.00,,---,0.00,0.00,VWS V14.01,2013-08-04 06:47:00,
2013-08-04 01:50:00,82.8,78.9,29.95,SSE,157,5.0,13.2,88,0.00,,---,0.00,0.00,VWS V14.01,2013-08-04 06:50:00,
2013-08-04 01:51:00,82.8,78.9,29.95,SSE,159,11.0,12.2,88,0.00,,---,0.00,0.00,VWS V14.01,2013-08-04 06:51:00,
2013-08-04 01:55:00,82.8,78.9,29.95,SSE,159,6.0,12.2,88,0.00,,---,0.00,0.00,VWS V14.01,2013-08-04 06:55:00,
2013-08-04 01:57:00,82.8,78.9,29.95,SE,134,5.0,10.2,88,0.00,,---,0.00,0.00,VWS V14.01,2013-08-04 06:57:00,
2013-08-04 02:00:00,82.6,79.0,29.95,SSE,150,5.0,15.2,89,0.00,,---,0.00,0.00,VWS V14.01,2013-08-04 07:00:00,
2013-08-04 02:02:00,82.4,78.8,29.95,SE,143,11.0,13.2,89,0.00,,---,0.00,0.00,VWS V14.01,2013-08-04 07:02:00,
2013-08-04 02:05:00,82.4,78.8,29.95,SE,142,6.0,14.2,89,0.00,,---,0.00,0.00,VWS V14.01,2013-08-04 07:05:00,
2013-08-04 02:07:00,82.4,78.8,29.95,SE,144,3.0,8.2,89,0.00,,---,0.00,0.00,VWS V14.01,2013-08-04 07:07:00,
2013-08-04 02:10:00,82.4,78.8,29.95,SSE,157,5.0,12.2,89,0.00,,---,0.00,0.00,VWS V14.01,2013-08-04 07:10:00,
2013-08-04 02:12:00,82.4,78.8,29.95,South,170,2.0,7.2,89,0.00,,---,0.00,0.00,VWS V14.01,2013-08-04 07:12:00,
2013-08-04 02:15:00,82.4,78.8,29.95,SSE,153,3.0,10.2,89,0.00,,---,0.00,0.00,VWS V14.01,2013-08-04 07:15:00,
2013-08-04 02:17:00,82.4,78.8,29.95,SSE,152,1.0,5.2,89,0.00,,---,0.00,0.00,VWS V14.01,2013-08-04 07:17:00,
2013-08-04 02:20:00,82.2,79.0,29.95,SE,146,5.0,11.2,90,0.00,,---,0.00,0.00,VWS V14.01,2013-08-04 07:20:00,
2013-08-04 02:22:00,82.2,79.0,29.95,SE,146,1.0,6.2,90,0.00,,---,0.00,0.00,VWS V14.01,2013-08-04 07:22:00,
2013-08-04 02:25:00,82.2,79.0,29.95,SE,146,1.0,8.2,90,0.00,,---,0.00,0.00,VWS V14.01,2013-08-04 07:25:00,
2013-08-04 02:27:00,82.2,79.0,29.95,SE,146,2.0,5.2,90,0.00,,---,0.00,0.00,VWS V14.01,2013-08-04 07:27:00,
2013-08-04 02:30:00,82.4,79.2,29.95,SSE,155,3.0,8.2,90,0.00,,---,0.00,0.00,VWS V14.01,2013-08-04 07:30:00,
2013-08-04 02:32:00,82.4,79.2,29.95,SSE,155,9.0,10.2,90,0.00,,---,0.00,0.00,VWS V14.01,2013-08-04 07:32:00,
2013-08-04 02:35:00,82.4,78.8,29.95,ESE,119,4.0,11.2,89,0.00,,---,0.00,0.00,VWS V14.01,2013-08-04 07:35:00,
2013-08-04 02:37:00,82.6,79.0,29.95,SE,141,5.0,7.2,89,0.00,,---,0.00,0.00,VWS V14.01,2013-08-04 07:37:00,
2013-08-04 02:40:00,82.6,79.0,29.95,SSE,155,2.0,10.2,89,0.00,,---,0.00,0.00,VWS V14.01,2013-08-04 07:40:00,
2013-08-04 02:42:00,82.6,79.0,29.95,SSE,155,4.0,6.2,89,0.00,,---,0.00,0.00,VWS V14.01,2013-08-04 07:42:00,
2013-08-04 02:45:00,82.6,79.0,29.95,SSE,147,2.0,9.2,89,0.00,,---,0.00,0.00,VWS V14.01,2013-08-04 07:45:00,
2013-08-04 02:47:00,82.6,79.0,29.95,SE,146,4.0,5.2,89,0.00,,---,0.00,0.00,VWS V14.01,2013-08-04 07:47:00,
2013-08-04 02:50:00,82.6,79.0,29.95,SSE,155,3.0,8.2,89,0.00,,---,0.00,0.00,VWS V14.01,2013-08-04 07:50:00,
2013-08-04 02:52:00,82.6,79.0,29.95,SE,126,4.0,8.2,89,0.00,,---,0.00,0.00,VWS V14.01,2013-08-04 07:52:00,
2013-08-04 02:55:00,82.4,78.8,29.95,SSE,157,2.0,8.2,89,0.00,,---,0.00,0.00,VWS V14.01,2013-08-04 07:55:00,
2013-08-04 02:57:00,82.4,78.8,29.95,SSE,155,5.0,7.2,89,0.00,,---,0.00,0.00,VWS V14.01,2013-08-04 07:57:00,
2013-08-04 03:00:00,82.2,78.6,29.95,SSE,155,2.0,7.2,89,0.00,,---,0.00,0.00,VWS V14.01,2013-08-04 08:00:00,
2013-08-04 03:02:00,82.2,78.6,29.95,SSE,155,3.0,4.2,89,0.00,,---,0.00,0.00,VWS V14.01,2013-08-04 08:02:00,
2013-08-04 03:05:00,82.2,79.0,29.95,SSE,156,5.0,8.2,90,0.00,,---,0.00,0.00,VWS V14.01,2013-08-04 08:05:00,
2013-08-04 03:07:00,82.0,78.8,29.95,SSE,151,3.0,10.2,90,0.00,,---,0.00,0.00,VWS V14.01,2013-08-04 08:07:00,
2013-08-04 03:10:00,82.2,79.0,29.95,SE,145,3.0,10.2,90,0.00,,---,0.00,0.00,VWS V14.01,2013-08-04 08:10:00,
2013-08-04 03:12:00,82.2,79.0,29.95,SE,145,5.0,6.2,90,0.00,,---,0.00,0.00,VWS V14.01,2013-08-04 08:12:00,
2013-08-04 03:15:00,82.4,79.2,29.95,SE,144,1.0,8.2,90,0.00,,---,0.00,0.00,VWS V14.01,2013-08-04 08:15:00,
2013-08-04 03:17:00,82.2,79.0,29.95,SE,126,9.0,10.2,90,0.00,,---,0.00,0.00,VWS V14.01,2013-08-04 08:17:00,
2013-08-04 03:20:00,82.2,79.0,29.95,SE,137,3.0,11.2,90,0.00,,---,0.00,0.00,VWS V14.01,2013-08-04 08:20:00,
2013-08-04 03:22:00,82.2,79.0,29.95,SE,137,0.0,4.2,90,0.00,,---,0.00,0.00,VWS V14.01,2013-08-04 08:22:00,
2013-08-04 03:25:00,82.0,78.8,29.95,SE,138,5.0,8.2,90,0.00,,---,0.00,0.00,VWS V14.01,2013-08-04 08:25:00,
2013-08-04 03:27:00,82.0,78.8,29.95,SE,139,4.0,7.2,90,0.00,,---,0.00,0.00,VWS V14.01,2013-08-04 08:27:00,
2013-08-04 03:30:00,82.0,78.8,29.94,SE,146,1.0,7.2,90,0.00,,---,0.00,0.00,VWS V14.01,2013-08-04 08:30:00,
2013-08-04 03:32:00,82.0,79.1,29.94,SE,146,4.0,6.2,91,0.00,,---,0.00,0.00,VWS V14.01,2013-08-04 08:32:00,
2013-08-04 03:35:00,81.8,78.9,29.94,SE,140,6.0,9.2,91,0.00,,---,0.00,0.00,VWS V14.01,2013-08-04 08:35:00,
2013-08-04 03:37:00,81.8,78.9,29.94,SSE,165,5.0,8.2,91,0.00,,---,0.00,0.00,VWS V14.01,2013-08-04 08:37:00,
2013-08-04 03:40:00,82.0,79.1,29.94,SSE,150,2.0,9.2,91,0.00,,---,0.00,0.00,VWS V14.01,2013-08-04 08:40:00,
2013-08-04 03:42:00,82.0,79.1,29.94,SSE,150,3.0,6.2,91,0.00,,---,0.00,0.00,VWS V14.01,2013-08-04 08:42:00,
2013-08-04 03:45:00,82.2,79.3,29.94,SSE,150,4.0,7.2,91,0.00,,---,0.00,0.00,VWS V14.01,2013-08-04 08:45:00,
2013-08-04 03:47:00,82.2,79.3,29.94,SSE,148,6.0,7.2,91,0.00,,---,0.00,0.00,VWS V14.01,2013-08-04 08:47:00,
2013-08-04 03:50:00,82.2,79.0,29.94,SE,136,7.0,11.2,90,0.00,,---,0.00,0.00,VWS V14.01,2013-08-04 08:50:00,
2013-08-04 03:51:00,82.2,79.0,29.94,SE,143,8.0,9.2,90,0.00,,---,0.00,0.00,VWS V14.01,2013-08-04 08:51:00,
2013-08-04 03:55:00,82.6,79.4,29.94,SSE,155,3.0,11.2,90,0.00,,---,0.00,0.00,VWS V14.01,2013-08-04 08:55:00,
2013-08-04 03:57:00,82.6,79.0,29.94,SSE,152,4.0,11.2,89,0.00,,---,0.00,0.00,VWS V14.01,2013-08-04 08:57:00,
2013-08-04 04:00:00,82.4,78.8,29.94,SE,146,4.0,11.2,89,0.00,,---,0.00,0.00,VWS V14.01,2013-08-04 09:00:00,
2013-08-04 04:02:00,82.4,78.8,29.94,SE,145,5.0,6.2,89,0.00,,---,0.00,0.00,VWS V14.01,2013-08-04 09:02:00,
2013-08-04 04:05:00,82.2,79.0,29.94,SSE,159,5.0,11.2,90,0.00,,---,0.00,0.00,VWS V14.01,2013-08-04 09:05:00,
2013-08-04 04:07:00,82.0,78.8,29.94,SE,128,6.0,12.2,90,0.00,,---,0.00,0.00,VWS V14.01,2013-08-04 09:07:00,
2013-08-04 04:10:00,82.0,79.1,29.94,SSE,151,4.0,12.2,91,0.00,,---,0.00,0.00,VWS V14.01,2013-08-04 09:10:00,
2013-08-04 04:12:00,81.8,78.9,29.94,SSE,150,5.0,6.2,91,0.00,,---,0.00,0.00,VWS V14.01,2013-08-04 09:12:00,
2013-08-04 04:15:00,81.8,78.9,29.94,SSE,148,5.0,10.2,91,0.00,,---,0.00,0.00,VWS V14.01,2013-08-04 09:15:00,
2013-08-04 04:17:00,81.8,78.9,29.94,SSE,151,7.0,8.2,91,0.00,,---,0.00,0.00,VWS V14.01,2013-08-04 09:17:00,
2013-08-04 04:20:00,81.8,78.9,29.94,SSE,152,6.0,10.2,91,0.00,,---,0.00,0.00,VWS V14.01,2013-08-04 09:20:00,
2013-08-04 04:22:00,81.8,78.9,29.94,SSE,149,5.0,10.2,91,0.00,,---,0.00,0.00,VWS V14.01,2013-08-04 09:22:00,
2013-08-04 04:25:00,81.6,78.7,29.94,SSE,147,5.0,10.2,91,0.00,,---,0.00,0.00,VWS V14.01,2013-08-04 09:25:00,
2013-08-04 04:27:00,81.6,78.7,29.94,SE,145,6.0,8.2,91,0.00,,---,0.00,0.00,VWS V14.01,2013-08-04 09:27:00,
2013-08-04 04:30:00,81.6,79.1,29.94,SSE,151,2.0,9.2,92,0.00,,---,0.00,0.00,VWS V14.01,2013-08-04 09:30:00,
2013-08-04 04:32:00,81.6,79.1,29.94,SSE,148,4.0,6.2,92,0.00,,---,0.00,0.00,VWS V14.01,2013-08-04 09:32:00,
2013-08-04 04:35:00,81.8,79.2,29.94,SE,141,2.0,8.2,92,0.00,,---,0.00,0.00,VWS V14.01,2013-08-04 09:35:00,
2013-08-04 04:37:00,81.8,79.2,29.94,SE,144,4.0,8.2,92,0.00,,---,0.00,0.00,VWS V14.01,2013-08-04 09:37:00,
2013-08-04 04:40:00,81.8,78.9,29.94,SSE,155,5.0,12.2,91,0.00,,---,0.00,0.00,VWS V14.01,2013-08-04 09:40:00,
2013-08-04 04:42:00,81.8,78.9,29.94,SSE,155,0.0,6.2,91,0.00,,---,0.00,0.00,VWS V14.01,2013-08-04 09:42:00,
2013-08-04 04:45:00,81.8,78.9,29.93,SSE,166,3.0,8.2,91,0.00,,---,0.00,0.00,VWS V14.01,2013-08-04 09:45:00,
2013-08-04 04:47:00,81.8,78.9,29.93,SSE,159,4.0,8.2,91,0.00,,---,0.00,0.00,VWS V14.01,2013-08-04 09:47:00,
2013-08-04 04:50:00,82.0,79.1,29.93,SE,144,3.0,11.2,91,0.00,,---,0.00,0.00,VWS V14.01,2013-08-04 09:50:00,
2013-08-04 04:52:00,82.0,79.1,29.93,SE,144,4.0,5.2,91,0.00,,---,0.00,0.00,VWS V14.01,2013-08-04 09:52:00,
2013-08-04 04:55:00,82.0,79.1,29.93,SSE,148,5.0,11.2,91,0.00,,---,0.00,0.00,VWS V14.01,2013-08-04 09:55:00,
2013-08-04 04:57:00,82.0,79.1,29.93,South,178,6.0,7.2,91,0.00,,---,0.00,0.00,VWS V14.01,2013-08-04 09:57:00,
2013-08-04 05:00:00,82.0,79.1,29.93,SSE,157,1.0,12.2,91,0.00,,---,0.00,0.00,VWS V14.01,2013-08-04 10:00:00,
2013-08-04 05:02:00,82.0,79.1,29.93,SSE,157,2.0,6.2,91,0.00,,---,0.00,0.00,VWS V14.01,2013-08-04 10:02:00,
2013-08-04 05:05:00,82.0,78.8,29.93,SSW,205,3.0,11.2,90,0.00,,---,0.00,0.00,VWS V14.01,2013-08-04 10:05:00,
2013-08-04 05:07:00,82.0,78.8,29.93,South,188,3.0,10.2,90,0.00,,---,0.00,0.00,VWS V14.01,2013-08-04 10:07:00,
2013-08-04 05:10:00,81.8,78.9,29.93,SSE,157,4.0,10.2,91,0.00,,---,0.00,0.00,VWS V14.01,2013-08-04 10:10:00,
2013-08-04 05:12:00,81.8,78.9,29.93,South,174,1.0,10.2,91,0.00,,---,0.00,0.00,VWS V14.01,2013-08-04 10:12:00,
2013-08-04 05:15:00,81.8,78.9,29.93,SSE,152,5.0,14.2,91,0.00,,---,0.00,0.00,VWS V14.01,2013-08-04 10:15:00,
2013-08-04 05:17:00,81.8,78.9,29.93,SSE,149,5.0,12.2,91,0.00,,---,0.00,0.00,VWS V14.01,2013-08-04 10:17:00,
2013-08-04 05:20:00,82.0,79.1,29.93,SSE,159,3.0,12.2,91,0.00,,---,0.00,0.00,VWS V14.01,2013-08-04 10:20:00,
2013-08-04 05:22:00,82.0,79.1,29.93,SSE,156,5.0,7.2,91,0.00,,---,0.00,0.00,VWS V14.01,2013-08-04 10:22:00,
2013-08-04 05:25:00,82.0,78.8,29.93,SE,139,3.0,11.2,90,0.00,,---,0.00,0.00,VWS V14.01,2013-08-04 10:25:00,
2013-08-04 05:27:00,82.0,78.8,29.93,SSE,150,5.0,10.2,90,0.00,,---,0.00,0.00,VWS V14.01,2013-08-04 10:27:00,
2013-08-04 05:30:00,81.8,78.9,29.93,South,173,6.0,10.2,91,0.00,,---,0.00,0.00,VWS V14.01,2013-08-04 10:30:00,
2013-08-04 05:32:00,81.8,78.9,29.93,South,171,3.0,8.2,91,0.00,,---,0.00,0.00,VWS V14.01,2013-08-04 10:32:00,
2013-08-04 05:35:00,81.8,78.9,29.93,SSE,159,6.0,10.2,91,0.00,,---,0.00,0.00,VWS V14.01,2013-08-04 10:35:00,
2013-08-04 05:37:00,81.8,78.9,29.93,SSE,163,4.0,10.2,91,0.00,,---,0.00,0.00,VWS V14.01,2013-08-04 10:37:00,
2013-08-04 05:40:00,81.6,78.7,29.93,SE,146,4.0,11.2,91,0.00,,---,0.00,0.00,VWS V14.01,2013-08-04 10:40:00,
2013-08-04 05:42:00,81.6,78.7,29.93,SE,146,3.0,5.2,91,0.00,,---,0.00,0.00,VWS V14.01,2013-08-04 10:42:00,
2013-08-04 05:45:00,81.6,78.7,29.94,SE,146,3.0,10.2,91,0.00,,---,0.00,0.00,VWS V14.01,2013-08-04 10:45:00,
2013-08-04 05:47:00,81.6,79.1,29.94,SE,146,2.0,6.2,92,0.00,,---,0.00,0.00,VWS V14.01,2013-08-04 10:47:00,
2013-08-04 05:50:00,81.6,79.1,29.94,SSE,149,4.0,9.2,92,0.00,,---,0.00,0.00,VWS V14.01,2013-08-04 10:50:00,
2013-08-04 05:52:00,81.6,79.1,29.94,SSE,157,10.0,11.2,92,0.00,,---,0.00,0.00,VWS V14.01,2013-08-04 10:52:00,
2013-08-04 05:55:00,81.8,79.2,29.94,SSE,162,5.0,12.2,92,0.00,,---,0.00,0.00,VWS V14.01,2013-08-04 10:55:00,
2013-08-04 05:57:00,81.8,78.9,29.94,SSE,153,7.0,8.2,91,0.00,,---,0.00,0.00,VWS V14.01,2013-08-04 10:57:00,
2013-08-04 06:00:00,81.8,78.9,29.94,ESE,119,6.0,12.2,91,0.00,,---,0.00,0.00,VWS V14.01,2013-08-04 11:00:00,
2013-08-04 06:02:00,81.8,78.9,29.93,South,174,6.0,7.2,91,0.00,,---,0.00,0.00,VWS V14.01,2013-08-04 11:02:00,
2013-08-04 06:05:00,82.0,79.1,29.94,SE,134,0.0,11.2,91,0.00,,---,0.00,0.00,VWS V14.01,2013-08-04 11:05:00,
2013-08-04 06:07:00,82.0,79.1,29.93,SE,134,3.0,4.2,91,0.00,,---,0.00,0.00,VWS V14.01,2013-08-04 11:07:00,
2013-08-04 06:10:00,82.2,79.3,29.94,SSE,155,1.0,10.2,91,0.00,,---,0.00,0.00,VWS V14.01,2013-08-04 11:10:00,
2013-08-04 06:12:00,82.2,79.3,29.93,SSE,155,6.0,7.2,91,0.00,,---,0.00,0.00,VWS V14.01,2013-08-04 11:12:00,
2013-08-04 06:15:00,82.0,79.1,29.93,SE,145,1.0,11.2,91,0.00,,---,0.00,0.00,VWS V14.01,2013-08-04 11:15:00,
2013-08-04 06:17:00,82.0,79.1,29.93,SE,145,5.0,8.2,91,0.00,,---,0.00,0.00,VWS V14.01,2013-08-04 11:17:00,
2013-08-04 06:20:00,81.8,78.9,29.93,SSE,150,5.0,11.2,91,0.00,,---,0.00,0.00,VWS V14.01,2013-08-04 11:20:00,
2013-08-04 06:22:00,81.6,78.7,29.93,SSE,150,4.0,7.2,91,0.00,,---,0.00,0.00,VWS V14.01,2013-08-04 11:22:00,
2013-08-04 06:25:00,81.6,79.1,29.93,SSE,147,4.0,7.2,92,0.00,,---,0.00,0.00,VWS V14.01,2013-08-04 11:25:00,
2013-08-04 06:27:00,81.6,79.1,29.93,ESE,120,6.0,9.2,92,0.00,,---,0.00,0.00,VWS V14.01,2013-08-04 11:27:00,
2013-08-04 06:30:00,81.6,79.1,29.93,SE,139,2.0,9.2,92,0.00,,---,0.00,0.00,VWS V14.01,2013-08-04 11:30:00,
2013-08-04 06:32:00,81.4,78.9,29.93,SE,138,8.0,11.2,92,0.00,,---,0.00,0.00,VWS V14.01,2013-08-04 11:32:00,
2013-08-04 06:35:00,81.4,78.9,29.93,SSE,150,5.0,11.2,92,0.00,,---,0.00,0.00,VWS V14.01,2013-08-04 11:35:00,
2013-08-04 06:37:00,81.4,78.9,29.93,SSE,150,3.0,8.2,92,0.00,,---,0.00,0.00,VWS V14.01,2013-08-04 11:37:00,
2013-08-04 06:40:00,81.4,78.9,29.93,SSE,155,0.0,8.2,92,0.00,,---,0.00,0.00,VWS V14.01,2013-08-04 11:40:00,
2013-08-04 06:42:00,81.4,78.9,29.93,SE,143,7.0,13.2,92,0.00,,---,0.00,0.00,VWS V14.01,2013-08-04 11:42:00,
2013-08-04 06:45:00,81.4,78.9,29.94,SSE,162,6.0,13.2,92,0.00,,---,0.00,0.00,VWS V14.01,2013-08-04 11:45:00,
2013-08-04 06:47:00,81.4,78.9,29.94,SSE,162,2.0,7.2,92,0.00,,---,0.00,0.00,VWS V14.01,2013-08-04 11:47:00,
2013-08-04 06:50:00,81.4,78.9,29.94,SSE,156,6.0,8.2,92,0.00,,---,0.00,0.00,VWS V14.01,2013-08-04 11:50:00,
2013-08-04 06:52:00,81.4,78.9,29.94,SSE,153,3.0,13.2,92,0.00,,---,0.00,0.00,VWS V14.01,2013-08-04 11:52:00,
2013-08-04 06:55:00,81.6,79.1,29.94,SE,146,3.0,13.2,92,0.00,,---,0.00,0.00,VWS V14.01,2013-08-04 11:55:00,
2013-08-04 06:57:00,81.6,79.1,29.94,SSE,164,6.0,9.2,92,0.00,,---,0.00,0.00,VWS V14.01,2013-08-04 11:57:00,
2013-08-04 07:00:00,81.6,79.1,29.94,SSE,155,3.0,10.2,92,0.00,,---,0.00,5.00,VWS V14.01,2013-08-04 12:00:00,
2013-08-04 07:02:00,81.6,79.1,29.94,SSE,155,3.0,5.2,92,0.00,,---,0.00,7.00,VWS V14.01,2013-08-04 12:02:00,
2013-08-04 07:05:00,81.6,79.1,29.94,SSE,151,5.0,8.2,92,0.00,,---,0.00,11.00,VWS V14.01,2013-08-04 12:05:00,
2013-08-04 07:07:00,81.6,79.1,29.94,SSE,156,7.0,8.2,92,0.00,,---,0.00,11.00,VWS V14.01,2013-08-04 12:07:00,
2013-08-04 07:10:00,81.8,79.2,29.94,SE,138,5.0,11.2,92,0.00,,---,0.00,14.00,VWS V14.01,2013-08-04 12:10:00,
2013-08-04 07:12:00,81.8,78.9,29.94,SE,138,6.0,8.2,91,0.00,,---,0.00,16.00,VWS V14.01,2013-08-04 12:12:00,
2013-08-04 07:15:00,81.8,78.9,29.94,SE,136,2.0,13.2,91,0.00,,---,0.00,19.00,VWS V14.01,2013-08-04 12:15:00,
2013-08-04 07:17:00,81.8,78.9,29.94,SE,136,4.0,6.2,91,0.00,,---,0.00,21.00,VWS V14.01,2013-08-04 12:17:00,
2013-08-04 07:20:00,82.0,79.1,29.94,SE,134,4.0,8.2,91,0.00,,---,0.00,23.00,VWS V14.01,2013-08-04 12:20:00,
2013-08-04 07:22:00,82.0,79.1,29.94,SE,134,2.0,5.2,91,0.00,,---,0.00,23.00,VWS V14.01,2013-08-04 12:22:00,
2013-08-04 07:25:00,82.0,79.1,29.94,SSE,155,7.0,11.2,91,0.00,,---,0.00,26.00,VWS V14.01,2013-08-04 12:25:00,
2013-08-04 07:27:00,82.0,79.1,29.94,SSE,156,5.0,10.2,91,0.00,,---,0.00,26.00,VWS V14.01,2013-08-04 12:27:00,
2013-08-04 07:30:00,82.0,79.1,29.95,SSE,153,5.0,10.2,91,0.00,,---,0.00,30.00,VWS V14.01,2013-08-04 12:30:00,
2013-08-04 07:32:00,82.0,79.1,29.95,SE,143,8.0,10.2,91,0.00,,---,0.00,32.00,VWS V14.01,2013-08-04 12:32:00,
2013-08-04 07:35:00,82.0,79.1,29.95,SSE,147,4.0,10.2,91,0.00,,---,0.00,35.00,VWS V14.01,2013-08-04 12:35:00,
2013-08-04 07:37:00,82.2,79.3,29.95,SE,140,9.0,10.2,91,0.00,,---,0.00,35.00,VWS V14.01,2013-08-04 12:37:00,
2013-08-04 07:40:00,82.4,79.2,29.95,SE,144,4.0,10.2,90,0.00,,---,0.00,40.00,VWS V14.01,2013-08-04 12:40:00,
2013-08-04 07:41:00,82.4,79.2,29.95,SE,143,5.0,11.2,90,0.00,,---,0.00,40.00,VWS V14.01,2013-08-04 12:41:00,
2013-08-04 07:45:00,82.2,79.0,29.95,SSE,156,4.0,11.2,90,0.00,,---,0.00,44.00,VWS V14.01,2013-08-04 12:45:00,
2013-08-04 07:47:00,82.2,79.0,29.95,SSE,156,4.0,6.2,90,0.00,,---,0.00,46.00,VWS V14.01,2013-08-04 12:47:00,
2013-08-04 07:50:00,82.4,79.2,29.95,SSE,150,2.0,7.2,90,0.00,,---,0.00,49.00,VWS V14.01,2013-08-04 12:50:00,
2013-08-04 07:52:00,82.4,79.2,29.95,SSE,150,4.0,6.2,90,0.00,,---,0.00,49.00,VWS V14.01,2013-08-04 12:52:00,
2013-08-04 07:55:00,82.4,78.8,29.95,SSE,149,4.0,10.2,89,0.00,,---,0.00,54.00,VWS V14.01,2013-08-04 12:55:00,
2013-08-04 07:57:00,82.4,79.5,29.95,SSE,153,9.0,11.2,91,0.00,,---,0.00,54.00,VWS V14.01,2013-08-04 12:57:00,
2013-08-04 08:00:00,82.6,79.0,29.96,SE,146,5.0,11.2,89,0.00,,---,0.00,56.00,VWS V14.01,2013-08-04 13:00:00,
2013-08-04 08:02:00,82.6,79.0,29.96,SSE,150,5.0,8.2,89,0.00,,---,0.00,56.00,VWS V14.01,2013-08-04 13:02:00,
2013-08-04 08:05:00,82.8,79.2,29.96,SE,146,4.0,9.2,89,0.00,,---,0.00,60.00,VWS V14.01,2013-08-04 13:05:00,
2013-08-04 08:07:00,82.8,79.2,29.96,SE,146,2.0,5.2,89,0.00,,---,0.00,62.00,VWS V14.01,2013-08-04 13:07:00,
2013-08-04 08:10:00,82.8,78.9,29.96,SSE,147,7.0,12.2,88,0.00,,---,0.00,63.00,VWS V14.01,2013-08-04 13:10:00,
2013-08-04 08:12:00,82.8,78.9,29.96,SE,146,4.0,9.2,88,0.00,,---,0.00,63.00,VWS V14.01,2013-08-04 13:12:00,
2013-08-04 08:15:00,83.4,79.5,29.96,SE,132,4.0,10.2,88,0.00,,---,0.00,69.00,VWS V14.01,2013-08-04 13:15:00,
2013-08-04 08:17:00,83.4,79.5,29.96,SE,132,4.0,7.2,88,0.00,,---,0.00,69.00,VWS V14.01,2013-08-04 13:17:00,
2013-08-04 08:20:00,84.0,79.4,29.96,SE,139,3.0,12.2,86,0.00,,---,0.00,74.00,VWS V14.01,2013-08-04 13:20:00,
2013-08-04 08:22:00,84.1,79.5,29.96,SE,138,4.0,6.2,86,0.00,,---,0.00,76.00,VWS V14.01,2013-08-04 13:22:00,
2013-08-04 08:25:00,84.0,79.4,29.96,SE,140,4.0,13.2,86,0.00,,---,0.00,84.00,VWS V14.01,2013-08-04 13:25:00,
2013-08-04 08:27:00,84.0,79.4,29.96,SE,140,3.0,8.2,86,0.00,,---,0.00,86.00,VWS V14.01,2013-08-04 13:27:00,
2013-08-04 08:30:00,84.3,79.7,29.97,SSE,151,6.0,12.2,86,0.00,,---,0.00,95.00,VWS V14.01,2013-08-04 13:30:00,
2013-08-04 08:32:00,84.3,79.3,29.97,SSE,151,2.0,7.2,85,0.00,,---,0.00,98.00,VWS V14.01,2013-08-04 13:32:00,
2013-08-04 08:35:00,84.3,79.3,29.97,SE,140,9.0,12.2,85,0.00,,---,0.00,111.00,VWS V14.01,2013-08-04 13:35:00,
2013-08-04 08:37:00,84.3,79.3,29.97,SE,132,4.0,11.2,85,0.00,,---,0.00,113.00,VWS V14.01,2013-08-04 13:37:00,
2013-08-04 08:40:00,84.3,79.3,29.97,SE,134,5.0,11.2,85,0.00,,---,0.00,120.00,VWS V14.01,2013-08-04 13:40:00,
2013-08-04 08:42:00,84.3,79.3,29.97,SE,134,2.0,8.2,85,0.00,,---,0.00,120.00,VWS V14.01,2013-08-04 13:42:00,
2013-08-04 08:45:00,84.3,79.3,29.97,SE,142,5.0,12.2,85,0.00,,---,0.00,128.00,VWS V14.01,2013-08-04 13:45:00,
2013-08-04 08:47:00,84.3,79.3,29.97,SSE,167,7.0,8.2,85,0.00,,---,0.00,128.00,VWS V14.01,2013-08-04 13:47:00,
2013-08-04 08:50:00,84.3,79.3,29.97,SE,136,4.0,11.2,85,0.00,,---,0.00,132.00,VWS V14.01,2013-08-04 13:50:00,
2013-08-04 08:52:00,84.3,79.3,29.97,SSE,157,5.0,8.2,85,0.00,,---,0.00,132.00,VWS V14.01,2013-08-04 13:52:00,
2013-08-04 08:55:00,84.7,79.7,29.97,SSE,153,3.0,13.2,85,0.00,,---,0.00,146.00,VWS V14.01,2013-08-04 13:55:00,
2013-08-04 08:57:00,84.9,79.9,29.97,SE,146,5.0,7.2,85,0.00,,---,0.00,158.00,VWS V14.01,2013-08-04 13:57:00,
2013-08-04 09:00:00,85.1,79.4,29.97,SSE,153,7.0,15.2,83,0.00,,---,0.00,176.00,VWS V14.01,2013-08-04 14:00:00,
2013-08-04 09:02:00,85.1,79.4,29.97,SSE,147,5.0,8.2,83,0.00,,---,0.00,186.00,VWS V14.01,2013-08-04 14:02:00,
2013-08-04 09:05:00,84.9,79.2,29.97,SSW,195,2.0,11.2,83,0.00,,---,0.00,241.00,VWS V14.01,2013-08-04 14:05:00,
2013-08-04 09:07:00,84.9,79.2,29.97,SSE,167,3.0,6.2,83,0.00,,---,0.00,255.00,VWS V14.01,2013-08-04 14:07:00,
2013-08-04 09:10:00,85.1,79.4,29.97,SE,125,9.0,13.2,83,0.00,,---,0.00,318.00,VWS V14.01,2013-08-04 14:10:00,
2013-08-04 09:12:00,85.1,79.4,29.97,SSE,147,9.0,13.2,83,0.00,,---,0.00,318.00,VWS V14.01,2013-08-04 14:12:00,
2013-08-04 09:15:00,85.3,79.2,29.97,SSE,166,5.0,13.2,82,0.00,,---,0.00,346.00,VWS V14.01,2013-08-04 14:15:00,
2013-08-04 09:17:00,85.3,79.2,29.97,SSE,163,10.0,12.2,82,0.00,,---,0.00,332.00,VWS V14.01,2013-08-04 14:17:00,
2013-08-04 09:20:00,85.5,79.4,29.97,SE,134,6.0,14.2,82,0.00,,---,0.00,390.00,VWS V14.01,2013-08-04 14:20:00,
2013-08-04 09:22:00,85.5,79.4,29.97,South,186,5.0,12.2,82,0.00,,---,0.00,371.00,VWS V14.01,2013-08-04 14:22:00,
2013-08-04 09:25:00,85.5,79.0,29.97,SE,146,5.0,13.2,81,0.00,,---,0.00,396.00,VWS V14.01,2013-08-04 14:25:00,
2013-08-04 09:27:00,85.5,79.0,29.97,SSE,155,11.0,12.2,81,0.00,,---,0.00,406.00,VWS V14.01,2013-08-04 14:27:00,
2013-08-04 09:30:00,85.7,79.2,29.98,SSE,158,2.0,13.2,81,0.00,,---,0.00,434.00,VWS V14.01,2013-08-04 14:30:00,
2013-08-04 09:32:00,85.7,79.2,29.98,SSE,152,4.0,8.2,81,0.00,,---,0.00,436.00,VWS V14.01,2013-08-04 14:32:00,
2013-08-04 09:35:00,86.5,79.6,29.98,SSE,153,2.0,14.2,80,0.00,,---,0.00,438.00,VWS V14.01,2013-08-04 14:35:00,
2013-08-04 09:37:00,86.5,79.6,29.98,SSW,194,6.0,7.2,80,0.00,,---,0.00,427.00,VWS V14.01,2013-08-04 14:37:00,
2013-08-04 09:40:00,86.3,79.0,29.98,SSE,156,10.0,19.2,79,0.00,,---,0.00,436.00,VWS V14.01,2013-08-04 14:40:00,
2013-08-04 09:41:00,86.3,79.0,29.98,South,186,6.0,12.2,79,0.00,,---,0.00,436.00,VWS V14.01,2013-08-04 14:41:00,
2013-08-04 09:45:00,86.1,78.8,29.98,South,178,8.0,14.2,79,0.00,,---,0.00,466.00,VWS V14.01,2013-08-04 14:45:00,
2013-08-04 09:47:00,85.9,79.0,29.98,SSE,150,6.0,10.2,80,0.00,,---,0.00,466.00,VWS V14.01,2013-08-04 14:47:00,
2013-08-04 09:50:00,85.9,79.0,29.98,SSE,154,10.0,16.2,80,0.00,,---,0.00,492.00,VWS V14.01,2013-08-04 14:50:00,
2013-08-04 09:52:00,85.9,79.0,29.98,South,173,11.0,13.2,80,0.00,,---,0.00,494.00,VWS V14.01,2013-08-04 14:52:00,
2013-08-04 09:55:00,86.1,79.2,29.98,South,171,9.0,14.2,80,0.00,,---,0.00,512.00,VWS V14.01,2013-08-04 14:55:00,
2013-08-04 09:57:00,86.1,78.8,29.98,SSE,158,3.0,11.2,79,0.00,,---,0.00,522.00,VWS V14.01,2013-08-04 14:57:00,
2013-08-04 10:00:00,86.7,79.0,29.98,SE,130,12.0,14.2,78,0.00,,---,0.00,522.00,VWS V14.01,2013-08-04 15:00:00,
2013-08-04 10:02:00,86.7,79.0,29.98,SSE,165,9.0,13.2,78,0.00,,---,0.00,531.00,VWS V14.01,2013-08-04 15:02:00,
2013-08-04 10:05:00,86.7,79.0,29.98,SSE,152,7.0,15.2,78,0.00,,---,0.00,468.00,VWS V14.01,2013-08-04 15:05:00,
2013-08-04 10:06:00,86.7,79.0,29.98,SSE,159,8.0,15.2,78,0.00,,---,0.00,473.00,VWS V14.01,2013-08-04 15:06:00,
2013-08-04 10:10:00,87.0,79.3,29.98,SSE,163,3.0,15.2,78,0.00,,---,0.00,555.00,VWS V14.01,2013-08-04 15:10:00,
2013-08-04 10:12:00,87.0,79.3,29.98,SSE,161,5.0,11.2,78,0.00,,---,0.00,559.00,VWS V14.01,2013-08-04 15:12:00,
2013-08-04 10:15:00,87.2,79.1,29.98,SE,134,11.0,15.2,77,0.00,,---,0.00,554.00,VWS V14.01,2013-08-04 15:15:00,
2013-08-04 10:17:00,87.0,78.9,29.98,South,186,7.0,12.2,77,0.00,,---,0.00,570.00,VWS V14.01,2013-08-04 15:17:00,
2013-08-04 10:20:00,86.5,78.8,29.98,SSE,148,7.0,16.2,78,0.00,,---,0.00,564.00,VWS V14.01,2013-08-04 15:20:00,
2013-08-04 10:21:00,86.5,78.8,29.98,SSE,151,3.0,12.2,78,0.00,,---,0.00,564.00,VWS V14.01,2013-08-04 15:21:00,
2013-08-04 10:25:00,87.2,79.1,29.98,SE,129,12.0,15.2,77,0.00,,---,0.00,619.00,VWS V14.01,2013-08-04 15:25:00,
2013-08-04 10:27:00,87.4,79.3,29.98,SSE,152,10.0,13.2,77,0.00,,---,0.00,622.00,VWS V14.01,2013-08-04 15:27:00,
2013-08-04 10:30:00,87.8,78.9,29.98,SE,135,11.0,16.2,75,0.00,,---,0.00,633.00,VWS V14.01,2013-08-04 15:30:00,
2013-08-04 10:32:00,87.6,79.1,29.98,SSE,155,6.0,16.2,76,0.00,,---,0.00,638.00,VWS V14.01,2013-08-04 15:32:00,
2013-08-04 10:35:00,87.8,79.3,29.98,SE,145,5.0,16.2,76,0.00,,---,0.00,624.00,VWS V14.01,2013-08-04 15:35:00,
2013-08-04 10:37:00,87.8,79.3,29.98,South,178,7.0,12.2,76,0.00,,---,0.00,649.00,VWS V14.01,2013-08-04 15:37:00,
2013-08-04 10:40:00,88.0,79.1,29.98,SSE,159,7.0,18.2,75,0.00,,---,0.00,659.00,VWS V14.01,2013-08-04 15:40:00,
2013-08-04 10:42:00,88.2,79.3,29.98,SSE,153,11.0,14.2,75,0.00,,---,0.00,643.00,VWS V14.01,2013-08-04 15:42:00,
2013-08-04 10:45:00,87.8,78.9,29.97,SE,142,7.0,15.2,75,0.00,,---,0.00,661.00,VWS V14.01,2013-08-04 15:45:00,
2013-08-04 10:47:00,87.8,78.9,29.97,SSE,152,4.0,13.2,75,0.00,,---,0.00,671.00,VWS V14.01,2013-08-04 15:47:00,
2013-08-04 10:50:00,88.2,78.9,29.97,SSE,166,5.0,17.2,74,0.00,,---,0.00,675.00,VWS V14.01,2013-08-04 15:50:00,
2013-08-04 10:52:00,88.4,79.1,29.97,SE,146,6.0,7.2,74,0.00,,---,0.00,679.00,VWS V14.01,2013-08-04 15:52:00,
2013-08-04 10:55:00,88.4,79.1,29.97,SE,145,6.0,16.2,74,0.00,,---,0.00,715.00,VWS V14.01,2013-08-04 15:55:00,
2013-08-04 10:57:00,88.2,78.9,29.97,SE,138,6.0,13.2,74,0.00,,---,0.00,712.00,VWS V14.01,2013-08-04 15:57:00,
2013-08-04 11:00:00,88.4,79.1,29.97,South,169,10.0,15.2,74,0.00,,---,0.00,710.00,VWS V14.01,2013-08-04 16:00:00,
2013-08-04 11:02:00,88.4,79.1,29.97,SE,132,4.0,15.2,74,0.00,,---,0.00,729.00,VWS V14.01,2013-08-04 16:02:00,
2013-08-04 11:05:00,88.4,78.7,29.97,SSE,151,15.0,18.2,73,0.00,,---,0.00,737.00,VWS V14.01,2013-08-04 16:05:00,
2013-08-04 11:07:00,88.4,79.1,29.97,South,169,5.0,16.2,74,0.00,,---,0.00,735.00,VWS V14.01,2013-08-04 16:07:00,
2013-08-04 11:10:00,88.2,78.5,29.97,SSE,165,5.0,16.2,73,0.00,,---,0.00,747.00,VWS V14.01,2013-08-04 16:10:00,
2013-08-04 11:12:00,88.2,78.4,29.97,SSE,150,3.0,16.2,73,0.00,,---,0.00,742.00,VWS V14.01,2013-08-04 16:12:00,
2013-08-04 11:15:00,88.4,78.7,29.98,SE,141,6.0,16.2,73,0.00,,---,0.00,701.00,VWS V14.01,2013-08-04 16:15:00,
2013-08-04 11:17:00,88.6,78.8,29.98,South,182,7.0,12.2,73,0.00,,---,0.00,701.00,VWS V14.01,2013-08-04 16:17:00,
2013-08-04 11:20:00,88.4,78.7,29.98,SSW,196,2.0,15.2,73,0.00,,---,0.00,770.00,VWS V14.01,2013-08-04 16:20:00,
2013-08-04 11:22:00,88.6,78.8,29.98,SSE,162,7.0,16.2,73,0.00,,---,0.00,766.00,VWS V14.01,2013-08-04 16:22:00,
2013-08-04 11:25:00,88.8,78.6,29.98,SSE,148,10.0,17.2,72,0.00,,---,0.00,770.00,VWS V14.01,2013-08-04 16:25:00,
2013-08-04 11:27:00,88.8,78.6,29.98,SSE,155,9.0,16.2,72,0.00,,---,0.00,779.00,VWS V14.01,2013-08-04 16:27:00,
2013-08-04 11:30:00,88.8,78.2,29.98,SSE,155,4.0,18.2,71,0.00,,---,0.00,800.00,VWS V14.01,2013-08-04 16:30:00,
2013-08-04 11:32:00,88.8,78.2,29.98,SSE,161,9.0,15.2,71,0.00,,---,0.00,800.00,VWS V14.01,2013-08-04 16:32:00,
2013-08-04 11:35:00,89.0,78.4,29.98,SE,134,5.0,19.2,71,0.00,,---,0.00,795.00,VWS V14.01,2013-08-04 16:35:00,
2013-08-04 11:37:00,89.0,77.9,29.98,South,184,9.0,16.2,70,0.00,,---,0.00,784.00,VWS V14.01,2013-08-04 16:37:00,
2013-08-04 11:40:00,89.0,78.4,29.98,SSE,166,9.0,19.2,71,0.00,,---,0.00,809.00,VWS V14.01,2013-08-04 16:40:00,
2013-08-04 11:42:00,89.0,78.4,29.98,SE,146,5.0,14.2,71,0.00,,---,0.00,817.00,VWS V14.01,2013-08-04 16:42:00,
2013-08-04 11:45:00,89.7,78.6,29.98,SE,142,12.0,15.2,70,0.00,,---,0.00,817.00,VWS V14.01,2013-08-04 16:45:00,
2013-08-04 11:47:00,89.9,78.8,29.98,South,176,2.0,13.2,70,0.00,,---,0.00,823.00,VWS V14.01,2013-08-04 16:47:00,
2013-08-04 11:50:00,89.7,78.6,29.98,SE,136,8.0,18.2,70,0.00,,---,0.00,821.00,VWS V14.01,2013-08-04 16:50:00,
2013-08-04 11:52:00,89.7,78.6,29.98,South,173,10.0,12.2,70,0.00,,---,0.00,828.00,VWS V14.01,2013-08-04 16:52:00,
2013-08-04 11:55:00,89.5,78.4,29.98,SSE,157,10.0,18.2,70,0.00,,---,0.00,823.00,VWS V14.01,2013-08-04 16:55:00,
2013-08-04 11:57:00,89.5,78.4,29.98,SSE,150,10.0,17.2,70,0.00,,---,0.00,837.00,VWS V14.01,2013-08-04 16:57:00,
2013-08-04 12:00:00,89.0,77.9,29.98,SSE,160,6.0,19.2,70,0.00,,---,0.00,896.00,VWS V14.01,2013-08-04 17:00:00,
2013-08-04 12:02:00,89.3,78.2,29.98,SSW,198,9.0,10.2,70,0.00,,---,0.00,870.00,VWS V14.01,2013-08-04 17:02:00,
2013-08-04 12:05:00,89.9,78.4,29.98,SE,130,12.0,16.2,69,0.00,,---,0.00,865.00,VWS V14.01,2013-08-04 17:05:00,
2013-08-04 12:07:00,89.7,78.2,29.98,SE,138,4.0,14.2,69,0.00,,---,0.00,868.00,VWS V14.01,2013-08-04 17:07:00,
2013-08-04 12:10:00,89.7,78.6,29.98,SSE,159,4.0,16.2,70,0.00,,---,0.00,889.00,VWS V14.01,2013-08-04 17:10:00,
2013-08-04 12:12:00,89.7,78.6,29.98,SE,146,7.0,15.2,70,0.00,,---,0.00,889.00,VWS V14.01,2013-08-04 17:12:00,
2013-08-04 12:15:00,89.9,78.8,29.98,ESE,110,9.0,16.2,70,0.00,,---,0.00,881.00,VWS V14.01,2013-08-04 17:15:00,
2013-08-04 12:17:00,90.1,79.0,29.98,SE,144,5.0,13.2,70,0.00,,---,0.00,881.00,VWS V14.01,2013-08-04 17:17:00,
2013-08-04 12:20:00,90.3,78.8,29.98,East,101,5.0,14.2,69,0.00,,---,0.00,907.00,VWS V14.01,2013-08-04 17:20:00,
2013-08-04 12:22:00,90.3,78.3,29.98,SE,142,12.0,19.2,68,0.00,,---,0.00,896.00,VWS V14.01,2013-08-04 17:22:00,
2013-08-04 12:25:00,90.3,78.3,29.98,SSE,162,14.0,19.2,68,0.00,,---,0.00,902.00,VWS V14.01,2013-08-04 17:25:00,
2013-08-04 12:27:00,89.9,77.9,29.98,SSE,155,3.0,15.2,68,0.00,,---,0.00,898.00,VWS V14.01,2013-08-04 17:27:00,
2013-08-04 12:30:00,89.9,78.4,29.98,SE,141,7.0,17.2,69,0.00,,---,0.00,904.00,VWS V14.01,2013-08-04 17:30:00,
2013-08-04 12:32:00,89.9,78.4,29.98,SE,142,13.0,15.2,69,0.00,,---,0.00,907.00,VWS V14.01,2013-08-04 17:32:00,
2013-08-04 12:35:00,90.3,78.8,29.98,SE,144,9.0,18.2,69,0.00,,---,0.00,898.00,VWS V14.01,2013-08-04 17:35:00,
2013-08-04 12:37:00,90.5,78.5,29.98,South,171,11.0,13.2,68,0.00,,---,0.00,905.00,VWS V14.01,2013-08-04 17:37:00,
2013-08-04 12:40:00,90.3,78.3,29.98,SSE,151,9.0,17.2,68,0.00,,---,0.00,926.00,VWS V14.01,2013-08-04 17:40:00,
2013-08-04 12:42:00,90.3,78.3,29.98,SE,141,5.0,12.2,68,0.00,,---,0.00,942.00,VWS V14.01,2013-08-04 17:42:00,
2013-08-04 12:45:00,90.3,77.9,29.97,SSE,161,5.0,17.2,67,0.00,,---,0.00,918.00,VWS V14.01,2013-08-04 17:45:00,
2013-08-04 12:47:00,90.3,78.3,29.97,SE,131,9.0,11.2,68,0.00,,---,0.00,942.00,VWS V14.01,2013-08-04 17:47:00,
2013-08-04 12:50:00,90.1,78.6,29.97,SE,129,14.0,19.2,69,0.00,,---,0.00,932.00,VWS V14.01,2013-08-04 17:50:00,
2013-08-04 12:52:00,89.9,77.9,29.97,SE,134,10.0,17.2,68,0.00,,---,0.00,914.00,VWS V14.01,2013-08-04 17:52:00,
2013-08-04 12:55:00,89.9,78.4,29.97,SE,128,13.0,18.2,69,0.00,,---,0.00,1014.00,VWS V14.01,2013-08-04 17:55:00,
2013-08-04 12:57:00,89.9,78.4,29.97,SSE,159,10.0,16.2,69,0.00,,---,0.00,1018.00,VWS V14.01,2013-08-04 17:57:00,
2013-08-04 13:00:00,89.9,78.4,29.97,East,95,8.0,19.2,69,0.00,,---,0.00,979.00,VWS V14.01,2013-08-04 18:00:00,
2013-08-04 13:02:00,89.9,78.8,29.97,SE,142,13.0,15.2,70,0.00,,---,0.00,967.00,VWS V14.01,2013-08-04 18:02:00,
2013-08-04 13:05:00,89.9,78.4,29.97,SSE,156,5.0,18.2,69,0.00,,---,0.00,935.00,VWS V14.01,2013-08-04 18:05:00,
2013-08-04 13:07:00,89.9,78.8,29.97,SSE,165,12.0,16.2,70,0.00,,---,0.00,944.00,VWS V14.01,2013-08-04 18:07:00,
2013-08-04 13:10:00,90.3,79.2,29.97,SSE,157,13.0,19.2,70,0.00,,---,0.00,956.00,VWS V14.01,2013-08-04 18:10:00,
2013-08-04 13:12:00,90.3,78.8,29.97,SE,130,4.0,15.2,69,0.00,,---,0.00,962.00,VWS V14.01,2013-08-04 18:12:00,
2013-08-04 13:15:00,90.5,78.5,29.97,SSE,164,12.0,20.2,68,0.00,,---,0.00,977.00,VWS V14.01,2013-08-04 18:15:00,
2013-08-04 13:17:00,90.3,78.3,29.97,SE,132,9.0,19.2,68,0.00,,---,0.00,956.00,VWS V14.01,2013-08-04 18:17:00,
2013-08-04 13:20:00,90.7,79.1,29.97,SE,137,17.0,19.2,69,0.00,,---,0.00,958.00,VWS V14.01,2013-08-04 18:20:00,
2013-08-04 13:22:00,90.7,78.7,29.97,SSE,154,13.0,19.2,68,0.00,,---,0.00,958.00,VWS V14.01,2013-08-04 18:22:00,
2013-08-04 13:25:00,90.1,79.0,29.97,SE,138,7.0,19.2,70,0.00,,---,0.00,954.00,VWS V14.01,2013-08-04 18:25:00,
2013-08-04 13:27:00,90.1,79.0,29.97,East,99,9.0,18.2,70,0.00,,---,0.00,944.00,VWS V14.01,2013-08-04 18:27:00,
2013-08-04 13:30:00,90.7,79.1,29.96,SSE,149,11.0,18.2,69,0.00,,---,0.00,953.00,VWS V14.01,2013-08-04 18:30:00,
2013-08-04 13:32:00,90.5,78.5,29.96,SE,146,4.0,15.2,68,0.00,,---,0.00,962.00,VWS V14.01,2013-08-04 18:32:00,
2013-08-04 13:35:00,90.3,78.8,29.96,SE,144,12.0,20.2,69,0.00,,---,0.00,960.00,VWS V14.01,2013-08-04 18:35:00,
2013-08-04 13:37:00,90.1,79.0,29.96,SE,139,14.0,18.2,70,0.00,,---,0.00,935.00,VWS V14.01,2013-08-04 18:37:00,
2013-08-04 13:40:00,89.7,78.6,29.96,SE,129,16.0,21.2,70,0.00,,---,0.00,944.00,VWS V14.01,2013-08-04 18:40:00,
2013-08-04 13:42:00,89.7,78.6,29.96,East,94,12.0,17.2,70,0.00,,---,0.00,944.00,VWS V14.01,2013-08-04 18:42:00,
2013-08-04 13:45:00,90.3,78.8,29.96,ESE,109,15.0,20.2,69,0.00,,---,0.00,951.00,VWS V14.01,2013-08-04 18:45:00,
2013-08-04 13:47:00,90.3,78.3,29.96,East,100,11.0,17.2,68,0.00,,---,0.00,947.00,VWS V14.01,2013-08-04 18:47:00,
2013-08-04 13:50:00,90.1,78.1,29.96,ESE,121,6.0,21.2,68,0.00,,---,0.00,958.00,VWS V14.01,2013-08-04 18:50:00,
2013-08-04 13:52:00,90.3,78.8,29.96,ESE,113,11.0,19.2,69,0.00,,---,0.00,946.00,VWS V14.01,2013-08-04 18:52:00,
2013-08-04 13:55:00,90.5,78.5,29.96,SSE,150,12.0,21.2,68,0.00,,---,0.00,944.00,VWS V14.01,2013-08-04 18:55:00,
2013-08-04 13:57:00,90.3,78.3,29.96,ESE,123,5.0,22.2,68,0.00,,---,0.00,940.00,VWS V14.01,2013-08-04 18:57:00,
2013-08-04 14:00:00,90.3,78.3,29.95,SE,142,17.0,22.2,68,0.00,,---,0.00,923.00,VWS V14.01,2013-08-04 19:00:00,
2013-08-04 14:02:00,90.1,78.1,29.95,SE,146,6.0,18.2,68,0.00,,---,0.00,930.00,VWS V14.01,2013-08-04 19:02:00,
2013-08-04 14:05:00,90.3,78.3,29.95,ESE,118,12.0,18.2,68,0.00,,---,0.00,937.00,VWS V14.01,2013-08-04 19:05:00,
2013-08-04 14:07:00,90.3,78.3,29.95,SSE,147,19.0,20.2,68,0.00,,---,0.00,937.00,VWS V14.01,2013-08-04 19:07:00,
2013-08-04 14:10:00,89.7,76.8,29.95,ESE,123,14.0,21.2,66,0.00,,---,0.00,932.00,VWS V14.01,2013-08-04 19:10:00,
2013-08-04 14:12:00,89.9,77.5,29.95,ESE,116,13.0,19.2,67,0.00,,---,0.00,932.00,VWS V14.01,2013-08-04 19:12:00,
2013-08-04 14:15:00,89.9,78.4,29.95,SSE,150,12.0,19.2,69,0.00,,---,0.00,937.00,VWS V14.01,2013-08-04 19:15:00,
2013-08-04 14:17:00,89.7,78.2,29.95,SE,134,16.0,22.2,69,0.00,,---,0.00,937.00,VWS V14.01,2013-08-04 19:17:00,
2013-08-04 14:20:00,90.1,78.1,29.95,SE,142,12.0,22.2,68,0.00,,---,0.00,923.00,VWS V14.01,2013-08-04 19:20:00,
2013-08-04 14:22:00,90.3,77.9,29.95,SE,134,13.0,19.2,67,0.00,,---,0.00,925.00,VWS V14.01,2013-08-04 19:22:00,
2013-08-04 14:25:00,90.7,77.8,29.95,SSE,162,11.0,19.2,66,0.00,,---,0.00,958.00,VWS V14.01,2013-08-04 19:25:00,
2013-08-04 14:27:00,90.5,77.6,29.95,SE,126,10.0,18.2,66,0.00,,---,0.00,944.00,VWS V14.01,2013-08-04 19:27:00,
2013-08-04 14:30:00,90.1,77.7,29.94,SSE,148,15.0,21.2,67,0.00,,---,0.00,925.00,VWS V14.01,2013-08-04 19:30:00,
2013-08-04 14:32:00,89.9,77.5,29.94,SE,143,11.0,20.2,67,0.00,,---,0.00,930.00,VWS V14.01,2013-08-04 19:32:00,
2013-08-04 14:35:00,89.5,77.1,29.94,ESE,118,8.0,20.2,67,0.00,,---,0.00,918.00,VWS V14.01,2013-08-04 19:35:00,
2013-08-04 14:37:00,89.5,77.1,29.94,SE,128,14.0,19.2,67,0.00,,---,0.00,918.00,VWS V14.01,2013-08-04 19:37:00,
2013-08-04 14:40:00,90.1,77.2,29.94,SE,138,16.0,23.2,66,0.00,,---,0.00,914.00,VWS V14.01,2013-08-04 19:40:00,
2013-08-04 14:42:00,89.9,76.6,29.94,ESE,119,11.0,21.2,65,0.00,,---,0.00,907.00,VWS V14.01,2013-08-04 19:42:00,
2013-08-04 14:45:00,90.3,76.9,29.94,ESE,102,10.0,21.2,65,0.00,,---,0.00,909.00,VWS V14.01,2013-08-04 19:45:00,
2013-08-04 14:47:00,90.5,77.1,29.94,SE,140,12.0,22.2,65,0.00,,---,0.00,909.00,VWS V14.01,2013-08-04 19:47:00,
2013-08-04 14:50:00,90.3,77.4,29.94,ESE,109,15.0,22.2,66,0.00,,---,0.00,898.00,VWS V14.01,2013-08-04 19:50:00,
2013-08-04 14:52:00,90.3,77.4,29.94,ESE,121,10.0,18.2,66,0.00,,---,0.00,898.00,VWS V14.01,2013-08-04 19:52:00,
2013-08-04 14:55:00,90.3,77.9,29.94,SSE,150,15.0,21.2,67,0.00,,---,0.00,895.00,VWS V14.01,2013-08-04 19:55:00,
2013-08-04 14:57:00,90.3,77.9,29.94,SE,146,6.0,16.2,67,0.00,,---,0.00,895.00,VWS V14.01,2013-08-04 19:57:00,
2013-08-04 15:00:00,90.3,77.4,29.93,SE,136,15.0,18.2,66,0.00,,---,0.00,886.00,VWS V14.01,2013-08-04 20:00:00,
2013-08-04 15:02:00,90.1,76.8,29.93,SE,125,13.0,21.2,65,0.00,,---,0.00,886.00,VWS V14.01,2013-08-04 20:02:00,
2013-08-04 15:05:00,89.9,77.9,29.93,ESE,123,6.0,21.2,68,0.00,,---,0.00,875.00,VWS V14.01,2013-08-04 20:05:00,
2013-08-04 15:07:00,90.1,77.7,29.93,SE,140,16.0,17.2,67,0.00,,---,0.00,865.00,VWS V14.01,2013-08-04 20:07:00,
2013-08-04 15:10:00,90.3,77.4,29.93,ESE,121,5.0,20.2,66,0.00,,---,0.00,870.00,VWS V14.01,2013-08-04 20:10:00,
2013-08-04 15:12:00,90.5,77.6,29.93,SSE,155,12.0,18.2,66,0.00,,---,0.00,867.00,VWS V14.01,2013-08-04 20:12:00,
2013-08-04 15:15:00,90.7,77.8,29.93,SE,134,17.0,18.2,66,0.00,,---,0.00,858.00,VWS V14.01,2013-08-04 20:15:00,
2013-08-04 15:17:00,90.5,77.6,29.93,ESE,113,11.0,21.2,66,0.00,,---,0.00,860.00,VWS V14.01,2013-08-04 20:17:00,
2013-08-04 15:20:00,90.3,76.9,29.93,ESE,117,16.0,25.2,65,0.00,,---,0.00,847.00,VWS V14.01,2013-08-04 20:20:00,
2013-08-04 15:22:00,90.3,76.9,29.93,SE,126,17.0,19.2,65,0.00,,---,0.00,846.00,VWS V14.01,2013-08-04 20:22:00,
2013-08-04 15:25:00,90.1,77.7,29.93,SSE,162,12.0,22.2,67,0.00,,---,0.00,842.00,VWS V14.01,2013-08-04 20:25:00,
2013-08-04 15:28:00,89.7,77.3,29.93,SSE,161,11.0,18.2,67,0.00,,---,0.00,835.00,VWS V14.01,2013-08-04 20:28:00,
2013-08-04 15:30:00,89.5,77.6,29.93,SSE,156,7.0,21.2,68,0.00,,---,0.00,828.00,VWS V14.01,2013-08-04 20:30:00,
2013-08-04 15:33:00,89.7,77.7,29.93,South,174,9.0,19.2,68,0.00,,---,0.00,824.00,VWS V14.01,2013-08-04 20:33:00,
2013-08-04 15:35:00,89.7,77.3,29.93,SSE,147,13.0,20.2,67,0.00,,---,0.00,823.00,VWS V14.01,2013-08-04 20:35:00,
2013-08-04 15:38:00,89.5,77.6,29.93,SE,134,6.0,19.2,68,0.00,,---,0.00,817.00,VWS V14.01,2013-08-04 20:38:00,
2013-08-04 15:40:00,90.1,76.8,29.93,SE,144,14.0,20.2,65,0.00,,---,0.00,805.00,VWS V14.01,2013-08-04 20:40:00,
2013-08-04 15:42:00,90.1,77.2,29.93,SE,130,11.0,21.2,66,0.00,,---,0.00,796.00,VWS V14.01,2013-08-04 20:42:00,
2013-08-04 15:45:00,89.9,77.0,29.93,SE,144,14.0,21.2,66,0.00,,---,0.00,802.00,VWS V14.01,2013-08-04 20:45:00,
2013-08-04 15:48:00,90.1,77.7,29.93,SE,132,14.0,19.2,67,0.00,,---,0.00,793.00,VWS V14.01,2013-08-04 20:48:00,
2013-08-04 15:50:00,90.5,77.1,29.93,SSE,153,7.0,21.2,65,0.00,,---,0.00,788.00,VWS V14.01,2013-08-04 20:50:00,
2013-08-04 15:53:00,90.3,77.4,29.93,SE,126,10.0,20.2,66,0.00,,---,0.00,782.00,VWS V14.01,2013-08-04 20:53:00,
2013-08-04 15:55:00,90.1,77.7,29.93,SSE,167,8.0,21.2,67,0.00,,---,0.00,779.00,VWS V14.01,2013-08-04 20:55:00,
2013-08-04 15:58:00,90.1,77.7,29.93,SSE,165,8.0,17.2,67,0.00,,---,0.00,775.00,VWS V14.01,2013-08-04 20:58:00,
2013-08-04 16:00:00,89.7,77.3,29.93,SE,133,10.0,22.2,67,0.00,,---,0.00,766.00,VWS V14.01,2013-08-04 21:00:00,
2013-08-04 16:02:00,89.7,77.3,29.93,SE,138,16.0,20.2,67,0.00,,---,0.00,763.00,VWS V14.01,2013-08-04 21:02:00,
2013-08-04 16:05:00,89.3,76.5,29.93,South,176,11.0,23.2,66,0.00,,---,0.00,754.00,VWS V14.01,2013-08-04 21:05:00,
2013-08-04 16:08:00,89.3,76.9,29.93,SE,132,9.0,20.2,67,0.00,,---,0.00,751.00,VWS V14.01,2013-08-04 21:08:00,
2013-08-04 16:10:00,89.7,77.3,29.93,SE,142,11.0,22.2,67,0.00,,---,0.00,744.00,VWS V14.01,2013-08-04 21:10:00,
2013-08-04 16:13:00,89.7,76.8,29.93,ESE,114,10.0,19.2,66,0.00,,---,0.00,742.00,VWS V14.01,2013-08-04 21:13:00,
2013-08-04 16:15:00,89.7,76.4,29.92,SE,136,19.0,23.2,65,0.00,,---,0.00,731.00,VWS V14.01,2013-08-04 21:15:00,
2013-08-04 16:18:00,89.5,76.7,29.92,SE,138,12.0,23.2,66,0.00,,---,0.00,726.00,VWS V14.01,2013-08-04 21:18:00,
2013-08-04 16:20:00,89.5,77.1,29.92,East,96,11.0,23.2,67,0.00,,---,0.00,715.00,VWS V14.01,2013-08-04 21:20:00,
2013-08-04 16:22:00,89.7,77.3,29.92,SE,132,15.0,18.2,67,0.00,,---,0.00,714.00,VWS V14.01,2013-08-04 21:22:00,
2013-08-04 16:25:00,89.5,76.7,29.92,ESE,123,13.0,23.2,66,0.00,,---,0.00,703.00,VWS V14.01,2013-08-04 21:25:00,
2013-08-04 16:27:00,89.5,77.1,29.92,South,176,14.0,19.2,67,0.00,,---,0.00,701.00,VWS V14.01,2013-08-04 21:27:00,
2013-08-04 16:30:00,89.5,77.6,29.92,SE,130,5.0,19.2,68,0.00,,---,0.00,696.00,VWS V14.01,2013-08-04 21:30:00,
2013-08-04 16:32:00,89.5,77.1,29.92,SE,136,11.0,16.2,67,0.00,,---,0.00,689.00,VWS V14.01,2013-08-04 21:32:00,
2013-08-04 16:35:00,89.7,77.3,29.92,SE,138,12.0,20.2,67,0.00,,---,0.00,680.00,VWS V14.01,2013-08-04 21:35:00,
2013-08-04 16:37:00,89.5,76.7,29.92,SSE,153,7.0,17.2,66,0.00,,---,0.00,671.00,VWS V14.01,2013-08-04 21:37:00,
2013-08-04 16:40:00,89.9,76.6,29.92,SE,137,17.0,21.2,65,0.00,,---,0.00,663.00,VWS V14.01,2013-08-04 21:40:00,
2013-08-04 16:43:00,89.9,76.1,29.92,SE,136,12.0,22.2,64,0.00,,---,0.00,659.00,VWS V14.01,2013-08-04 21:43:00,
2013-08-04 16:45:00,89.7,76.8,29.91,SSE,150,7.0,22.2,66,0.00,,---,0.00,650.00,VWS V14.01,2013-08-04 21:45:00,
2013-08-04 16:47:00,89.5,76.7,29.91,SE,136,9.0,19.2,66,0.00,,---,0.00,649.00,VWS V14.01,2013-08-04 21:47:00,
2013-08-04 16:49:00,89.5,75.2,29.91,SE,132,13.0,20.2,63,0.00,,---,0.00,638.00,VWS V14.01,2013-08-04 21:49:00,
2013-08-04 16:50:00,89.3,76.5,29.91,SE,134,11.0,23.2,66,0.00,,---,0.00,635.00,VWS V14.01,2013-08-04 21:50:00,
2013-08-04 16:54:00,89.0,76.6,29.91,SE,139,12.0,21.2,67,0.00,,---,0.00,626.00,VWS V14.01,2013-08-04 21:54:00,
2013-08-04 16:55:00,88.8,76.4,29.91,SSE,150,15.0,21.2,67,0.00,,---,0.00,622.00,VWS V14.01,2013-08-04 21:55:00,
2013-08-04 16:59:00,88.4,76.1,29.91,ESE,112,16.0,23.2,67,0.00,,---,0.00,612.00,VWS V14.01,2013-08-04 21:59:00,
2013-08-04 17:00:00,88.6,76.2,29.91,SE,142,16.0,23.2,67,0.00,,---,0.00,608.00,VWS V14.01,2013-08-04 22:00:00,
2013-08-04 17:04:00,88.4,76.5,29.91,SE,142,17.0,19.2,68,0.00,,---,0.00,596.00,VWS V14.01,2013-08-04 22:04:00,
2013-08-04 17:05:00,88.4,76.5,29.91,SE,136,9.0,21.2,68,0.00,,---,0.00,594.00,VWS V14.01,2013-08-04 22:05:00,
2013-08-04 17:09:00,88.6,76.7,29.91,SE,131,14.0,23.2,68,0.00,,---,0.00,585.00,VWS V14.01,2013-08-04 22:09:00,
2013-08-04 17:10:00,88.6,76.2,29.91,ESE,112,14.0,23.2,67,0.00,,---,0.00,578.00,VWS V14.01,2013-08-04 22:10:00,
2013-08-04 17:14:00,88.4,77.4,29.91,South,172,13.0,24.2,70,0.00,,---,0.00,570.00,VWS V14.01,2013-08-04 22:14:00,
2013-08-04 17:15:00,88.2,76.8,29.91,SE,146,7.0,24.2,69,0.00,,---,0.00,563.00,VWS V14.01,2013-08-04 22:15:00,
2013-08-04 17:19:00,88.2,76.8,29.91,East,98,14.0,21.2,69,0.00,,---,0.00,552.00,VWS V14.01,2013-08-04 22:19:00,
2013-08-04 17:20:00,88.2,76.8,29.91,SE,135,12.0,21.2,69,0.00,,---,0.00,547.00,VWS V14.01,2013-08-04 22:20:00,
2013-08-04 17:24:00,88.2,76.3,29.91,SE,140,14.0,25.2,68,0.00,,---,0.00,534.00,VWS V14.01,2013-08-04 22:24:00,
2013-08-04 17:25:00,88.2,77.2,29.91,ESE,118,15.0,25.2,70,0.00,,---,0.00,531.00,VWS V14.01,2013-08-04 22:25:00,
2013-08-04 17:29:00,88.2,75.9,29.91,SE,134,15.0,20.2,67,0.00,,---,0.00,520.00,VWS V14.01,2013-08-04 22:29:00,
2013-08-04 17:30:00,88.2,76.8,29.91,SE,143,11.0,21.2,69,0.00,,---,0.00,512.00,VWS V14.01,2013-08-04 22:30:00,
2013-08-04 17:33:00,88.4,76.9,29.91,SE,128,14.0,22.2,69,0.00,,---,0.00,501.00,VWS V14.01,2013-08-04 22:33:00,
2013-08-04 17:35:00,88.4,77.4,29.91,ESE,122,6.0,22.2,70,0.00,,---,0.00,492.00,VWS V14.01,2013-08-04 22:35:00,
2013-08-04 17:39:00,88.6,76.7,29.91,ESE,119,11.0,19.2,68,0.00,,---,0.00,483.00,VWS V14.01,2013-08-04 22:39:00,
2013-08-04 17:40:00,88.2,76.8,29.91,SE,142,15.0,19.2,69,0.00,,---,0.00,473.00,VWS V14.01,2013-08-04 22:40:00,
2013-08-04 17:44:00,88.0,77.0,29.91,SE,132,16.0,20.2,70,0.00,,---,0.00,466.00,VWS V14.01,2013-08-04 22:44:00,
2013-08-04 17:45:00,88.0,77.0,29.91,SE,144,10.0,20.2,70,0.00,,---,0.00,457.00,VWS V14.01,2013-08-04 22:45:00,
2013-08-04 17:48:00,88.0,77.0,29.91,SE,130,18.0,20.2,70,0.00,,---,0.00,450.00,VWS V14.01,2013-08-04 22:48:00,
2013-08-04 17:50:00,88.0,77.0,29.91,SE,125,12.0,20.2,70,0.00,,---,0.00,445.00,VWS V14.01,2013-08-04 22:50:00,
2013-08-04 17:54:00,88.0,77.0,29.91,SE,134,16.0,19.2,70,0.00,,---,0.00,434.00,VWS V14.01,2013-08-04 22:54:00,
2013-08-04 17:55:00,88.2,77.2,29.91,SE,126,13.0,19.2,70,0.00,,---,0.00,427.00,VWS V14.01,2013-08-04 22:55:00,
2013-08-04 17:58:00,88.4,77.4,29.91,SSE,153,17.0,20.2,70,0.00,,---,0.00,417.00,VWS V14.01,2013-08-04 22:58:00,
2013-08-04 18:00:00,88.2,77.2,29.90,SSE,152,11.0,20.2,70,0.00,,---,0.00,408.00,VWS V14.01,2013-08-04 23:00:00,
2013-08-04 18:04:00,88.2,76.8,29.90,SSW,203,9.0,17.2,69,0.00,,---,0.00,403.00,VWS V14.01,2013-08-04 23:04:00,
2013-08-04 18:05:00,88.0,76.6,29.90,SE,141,6.0,20.2,69,0.00,,---,0.00,390.00,VWS V14.01,2013-08-04 23:05:00,
2013-08-04 18:08:00,87.8,76.8,29.90,SE,140,6.0,20.2,70,0.00,,---,0.00,385.00,VWS V14.01,2013-08-04 23:08:00,
2013-08-04 18:10:00,87.8,77.2,29.90,SE,144,15.0,20.2,71,0.00,,---,0.00,374.00,VWS V14.01,2013-08-04 23:10:00,
2013-08-04 18:13:00,87.6,77.0,29.90,SSE,167,6.0,21.2,71,0.00,,---,0.00,364.00,VWS V14.01,2013-08-04 23:13:00,
2013-08-04 18:15:00,87.8,77.2,29.90,South,174,16.0,21.2,71,0.00,,---,0.00,357.00,VWS V14.01,2013-08-04 23:15:00,
2013-08-04 18:19:00,87.2,77.1,29.90,SSE,165,5.0,22.2,72,0.00,,---,0.00,345.00,VWS V14.01,2013-08-04 23:19:00,
2013-08-04 18:20:00,87.2,77.5,29.90,SE,138,14.0,22.2,73,0.00,,---,0.00,339.00,VWS V14.01,2013-08-04 23:20:00,
2013-08-04 18:24:00,87.2,77.9,29.90,SE,129,14.0,20.2,74,0.00,,---,0.00,330.00,VWS V14.01,2013-08-04 23:24:00,
2013-08-04 18:25:00,87.4,77.3,29.90,SSE,153,15.0,20.2,72,0.00,,---,0.00,320.00,VWS V14.01,2013-08-04 23:25:00,
2013-08-04 18:29:00,87.6,77.5,29.90,SSE,153,4.0,19.2,72,0.00,,---,0.00,313.00,VWS V14.01,2013-08-04 23:29:00,
2013-08-04 18:30:00,87.6,77.5,29.90,SSE,157,6.0,19.2,72,0.00,,---,0.00,299.00,VWS V14.01,2013-08-04 23:30:00,
2013-08-04 18:34:00,87.2,77.1,29.90,SSE,155,22.0,24.2,72,0.00,,---,0.00,294.00,VWS V14.01,2013-08-04 23:34:00,
2013-08-04 18:35:00,87.0,77.3,29.90,ESE,116,9.0,24.2,73,0.00,,---,0.00,285.00,VWS V14.01,2013-08-04 23:35:00,
2013-08-04 18:39:00,86.7,77.4,29.90,SE,132,8.0,23.2,74,0.00,,---,0.00,278.00,VWS V14.01,2013-08-04 23:39:00,
2013-08-04 18:40:00,86.7,77.4,29.90,SE,130,10.0,23.2,74,0.00,,---,0.00,269.00,VWS V14.01,2013-08-04 23:40:00,
2013-08-04 18:44:00,86.5,77.2,29.90,SSE,155,12.0,19.2,74,0.00,,---,0.00,258.00,VWS V14.01,2013-08-04 23:44:00,
2013-08-04 18:45:00,86.3,77.0,29.90,SE,144,11.0,23.2,74,0.00,,---,0.00,248.00,VWS V14.01,2013-08-04 23:45:00,
2013-08-04 18:49:00,86.1,76.8,29.90,SE,130,4.0,24.2,74,0.00,,---,0.00,237.00,VWS V14.01,2013-08-04 23:49:00,
2013-08-04 18:50:00,86.5,77.6,29.90,ESE,103,12.0,24.2,75,0.00,,---,0.00,225.00,VWS V14.01,2013-08-04 23:50:00,
2013-08-04 18:54:00,86.5,77.2,29.90,South,169,10.0,27.2,74,0.00,,---,0.00,221.00,VWS V14.01,2013-08-04 23:54:00,
2013-08-04 18:55:00,86.5,77.6,29.90,South,178,12.0,27.2,75,0.00,,---,0.00,207.00,VWS V14.01,2013-08-04 23:55:00,
2013-08-04 18:59:00,86.3,77.0,29.90,SSE,151,14.0,21.2,74,0.00,,---,0.00,197.00,VWS V14.01,2013-08-04 23:59:00,
2013-08-04 19:00:00,85.9,77.1,29.90,SE,146,15.0,21.2,75,0.00,,---,0.00,188.00,VWS V14.01,2013-08-05 00:00:00,
2013-08-04 19:04:00,86.1,77.7,29.90,SE,131,14.0,16.2,76,0.00,,---,0.00,176.00,VWS V14.01,2013-08-05 00:04:00,
2013-08-04 19:05:00,86.1,77.2,29.90,SE,136,12.0,17.2,75,0.00,,---,0.00,167.00,VWS V14.01,2013-08-05 00:05:00,
2013-08-04 19:08:00,85.9,77.5,29.90,SE,144,17.0,22.2,76,0.00,,---,0.00,153.00,VWS V14.01,2013-08-05 00:08:00,
2013-08-04 19:10:00,85.7,77.3,29.90,ESE,114,9.0,22.2,76,0.00,,---,0.00,146.00,VWS V14.01,2013-08-05 00:10:00,
2013-08-04 19:13:00,85.7,77.3,29.90,SSE,157,13.0,20.2,76,0.00,,---,0.00,139.00,VWS V14.01,2013-08-05 00:13:00,
2013-08-04 19:15:00,85.5,77.1,29.90,South,171,3.0,21.2,76,0.00,,---,0.00,130.00,VWS V14.01,2013-08-05 00:15:00,
2013-08-04 19:19:00,85.7,77.3,29.90,SE,140,12.0,20.2,76,0.00,,---,0.00,120.00,VWS V14.01,2013-08-05 00:19:00,
2013-08-04 19:20:00,85.9,77.5,29.90,South,171,12.0,21.2,76,0.00,,---,0.00,107.00,VWS V14.01,2013-08-05 00:20:00,
2013-08-04 19:23:00,85.9,77.1,29.90,SSE,148,9.0,21.2,75,0.00,,---,0.00,98.00,VWS V14.01,2013-08-05 00:23:00,
2013-08-04 19:25:00,85.5,77.1,29.90,SSE,149,9.0,21.2,76,0.00,,---,0.00,88.00,VWS V14.01,2013-08-05 00:25:00,
2013-08-04 19:29:00,85.3,77.3,29.90,SE,134,9.0,17.2,77,0.00,,---,0.00,83.00,VWS V14.01,2013-08-05 00:29:00,
2013-08-04 19:30:00,85.3,77.3,29.90,SE,136,10.0,17.2,77,0.00,,---,0.00,76.00,VWS V14.01,2013-08-05 00:30:00,
2013-08-04 19:33:00,85.1,77.1,29.90,SSE,158,8.0,16.2,77,0.00,,---,0.00,63.00,VWS V14.01,2013-08-05 00:33:00,
2013-08-04 19:35:00,84.9,77.3,29.90,SSE,161,5.0,16.2,78,0.00,,---,0.00,44.00,VWS V14.01,2013-08-05 00:35:00,
2013-08-04 19:39:00,84.7,77.1,29.90,SE,136,19.0,21.2,78,0.00,,---,0.00,30.00,VWS V14.01,2013-08-05 00:39:00,
2013-08-04 19:40:00,84.5,77.3,29.90,SE,140,14.0,21.2,79,0.00,,---,0.00,26.00,VWS V14.01,2013-08-05 00:40:00,
2013-08-04 19:44:00,84.3,77.1,29.90,SE,129,14.0,21.2,79,0.00,,---,0.00,26.00,VWS V14.01,2013-08-05 00:44:00,
2013-08-04 19:45:00,84.5,77.7,29.90,SE,135,11.0,21.2,80,0.00,,---,0.00,25.00,VWS V14.01,2013-08-05 00:45:00,
2013-08-04 19:48:00,84.7,77.8,29.90,SSE,153,6.0,15.2,80,0.00,,---,0.00,21.00,VWS V14.01,2013-08-05 00:48:00,
2013-08-04 19:50:00,84.7,77.5,29.90,SSE,147,11.0,19.2,79,0.00,,---,0.00,19.00,VWS V14.01,2013-08-05 00:50:00,
2013-08-04 19:53:00,84.5,77.3,29.90,SE,128,9.0,19.2,79,0.00,,---,0.00,18.00,VWS V14.01,2013-08-05 00:53:00,
2013-08-04 19:55:00,84.5,77.3,29.90,SE,144,6.0,19.2,79,0.00,,---,0.00,16.00,VWS V14.01,2013-08-05 00:55:00,
2013-08-04 19:59:00,84.3,77.1,29.90,SSE,160,9.0,16.2,79,0.00,,---,0.00,14.00,VWS V14.01,2013-08-05 00:59:00,
2013-08-04 20:00:00,84.3,77.5,29.90,SSE,155,12.0,18.2,80,0.00,,---,0.00,14.00,VWS V14.01,2013-08-05 01:00:00,
2013-08-04 20:04:00,84.1,77.3,29.90,SSE,153,4.0,16.2,80,0.00,,---,0.00,12.00,VWS V14.01,2013-08-05 01:04:00,
2013-08-04 20:05:00,84.1,77.3,29.90,SE,143,14.0,16.2,80,0.00,,---,0.00,9.00,VWS V14.01,2013-08-05 01:05:00,
2013-08-04 20:09:00,84.1,77.6,29.90,East,98,5.0,18.2,81,0.00,,---,0.00,7.00,VWS V14.01,2013-08-05 01:09:00,
2013-08-04 20:10:00,84.0,77.5,29.90,SSE,159,17.0,21.2,81,0.00,,---,0.00,5.00,VWS V14.01,2013-08-05 01:10:00,
2013-08-04 20:14:00,84.0,77.5,29.90,SSE,153,10.0,18.2,81,0.00,,---,0.00,5.00,VWS V14.01,2013-08-05 01:14:00,
2013-08-04 20:15:00,84.1,77.6,29.90,SSE,153,13.0,18.2,81,0.00,,---,0.00,0.00,VWS V14.01,2013-08-05 01:15:00,
2013-08-04 20:18:00,84.1,77.6,29.90,SE,132,5.0,17.2,81,0.00,,---,0.00,0.00,VWS V14.01,2013-08-05 01:18:00,
2013-08-04 20:20:00,84.1,77.6,29.90,ESE,119,7.0,17.2,81,0.00,,---,0.00,0.00,VWS V14.01,2013-08-05 01:20:00,
2013-08-04 20:23:00,84.0,77.5,29.90,SE,144,9.0,19.2,81,0.00,,---,0.00,0.00,VWS V14.01,2013-08-05 01:23:00,
2013-08-04 20:25:00,83.8,77.7,29.90,SE,134,11.0,19.2,82,0.00,,---,0.00,0.00,VWS V14.01,2013-08-05 01:25:00,
2013-08-04 20:29:00,83.6,77.9,29.90,SE,144,3.0,16.2,83,0.00,,---,0.00,0.00,VWS V14.01,2013-08-05 01:29:00,
2013-08-04 20:30:00,83.4,77.7,29.91,South,188,7.0,16.2,83,0.00,,---,0.00,0.00,VWS V14.01,2013-08-05 01:30:00,
2013-08-04 20:34:00,83.4,77.7,29.91,SSE,157,8.0,16.2,83,0.00,,---,0.00,0.00,VWS V14.01,2013-08-05 01:34:00,
2013-08-04 20:35:00,83.4,78.1,29.91,SE,136,4.0,16.2,84,0.00,,---,0.00,0.00,VWS V14.01,2013-08-05 01:35:00,
2013-08-04 20:38:00,83.2,77.9,29.91,SE,138,9.0,15.2,84,0.00,,---,0.00,0.00,VWS V14.01,2013-08-05 01:38:00,
2013-08-04 20:40:00,83.2,77.9,29.91,SSE,148,8.0,20.2,84,0.00,,---,0.00,0.00,VWS V14.01,2013-08-05 01:40:00,
2013-08-04 20:44:00,83.2,77.9,29.91,SE,145,15.0,21.2,84,0.00,,---,0.00,0.00,VWS V14.01,2013-08-05 01:44:00,
2013-08-04 20:45:00,83.2,77.9,29.91,SE,134,10.0,21.2,84,0.00,,---,0.00,0.00,VWS V14.01,2013-08-05 01:45:00,
2013-08-04 20:49:00,83.6,77.9,29.91,SSE,151,6.0,19.2,83,0.00,,---,0.00,0.00,VWS V14.01,2013-08-05 01:49:00,
2013-08-04 20:50:00,83.6,77.9,29.91,SSE,157,4.0,19.2,83,0.00,,---,0.00,0.00,VWS V14.01,2013-08-05 01:50:00,
2013-08-04 20:54:00,83.6,77.5,29.91,ESE,123,9.0,19.2,82,0.00,,---,0.00,0.00,VWS V14.01,2013-08-05 01:54:00,
2013-08-04 20:55:00,83.4,77.7,29.91,SE,136,5.0,19.2,83,0.00,,---,0.00,0.00,VWS V14.01,2013-08-05 01:55:00,
2013-08-04 20:59:00,83.4,77.7,29.91,SE,143,11.0,17.2,83,0.00,,---,0.00,0.00,VWS V14.01,2013-08-05 01:59:00,
2013-08-04 21:00:00,83.4,77.7,29.91,ESE,123,12.0,20.2,83,0.00,,---,0.00,0.00,VWS V14.01,2013-08-05 02:00:00,
2013-08-04 21:04:00,83.4,77.7,29.91,SE,144,5.0,18.2,83,0.00,,---,0.00,0.00,VWS V14.01,2013-08-05 02:04:00,
2013-08-04 21:05:00,83.4,77.7,29.91,SSW,196,10.0,18.2,83,0.00,,---,0.00,0.00,VWS V14.01,2013-08-05 02:05:00,
2013-08-04 21:09:00,83.2,77.5,29.91,SE,141,12.0,19.2,83,0.00,,---,0.00,0.00,VWS V14.01,2013-08-05 02:09:00,
2013-08-04 21:10:00,83.2,77.9,29.91,SSE,167,6.0,19.2,84,0.00,,---,0.00,0.00,VWS V14.01,2013-08-05 02:10:00,
2013-08-04 21:14:00,83.2,77.9,29.91,SE,131,4.0,16.2,84,0.00,,---,0.00,0.00,VWS V14.01,2013-08-05 02:14:00,
2013-08-04 21:15:00,83.2,77.9,29.91,SSE,147,11.0,16.2,84,0.00,,---,0.00,0.00,VWS V14.01,2013-08-05 02:15:00,
2013-08-04 21:19:00,83.2,77.9,29.91,SSE,154,14.0,15.2,84,0.00,,---,0.00,0.00,VWS V14.01,2013-08-05 02:19:00,
2013-08-04 21:20:00,83.2,77.9,29.91,SSE,147,10.0,17.2,84,0.00,,---,0.00,0.00,VWS V14.01,2013-08-05 02:20:00,
2013-08-04 21:24:00,83.0,77.7,29.91,ESE,113,9.0,16.2,84,0.00,,---,0.00,0.00,VWS V14.01,2013-08-05 02:24:00,
2013-08-04 21:25:00,83.0,77.7,29.91,SSE,167,6.0,18.2,84,0.00,,---,0.00,0.00,VWS V14.01,2013-08-05 02:25:00,
2013-08-04 21:29:00,82.8,77.5,29.91,SE,142,9.0,20.2,84,0.00,,---,0.00,0.00,VWS V14.01,2013-08-05 02:29:00,
2013-08-04 21:30:00,82.8,77.8,29.92,SSE,163,10.0,20.2,85,0.00,,---,0.00,0.00,VWS V14.01,2013-08-05 02:30:00,
2013-08-04 21:34:00,82.8,77.8,29.92,SSE,164,7.0,13.2,85,0.00,,---,0.00,0.00,VWS V14.01,2013-08-05 02:34:00,
2013-08-04 21:35:00,82.8,77.8,29.92,SSE,159,11.0,14.2,85,0.00,,---,0.00,0.00,VWS V14.01,2013-08-05 02:35:00,
2013-08-04 21:38:00,82.6,77.6,29.92,SE,146,6.0,18.2,85,0.00,,---,0.00,0.00,VWS V14.01,2013-08-05 02:38:00,
2013-08-04 21:40:00,82.8,77.8,29.92,SE,146,4.0,18.2,85,0.00,,---,0.00,0.00,VWS V14.01,2013-08-05 02:40:00,
2013-08-04 21:43:00,82.8,77.8,29.92,East,96,4.0,15.2,85,0.00,,---,0.00,0.00,VWS V14.01,2013-08-05 02:43:00,
2013-08-04 21:45:00,82.8,77.8,29.92,SE,140,12.0,16.2,85,0.00,,---,0.00,0.00,VWS V14.01,2013-08-05 02:45:00,
2013-08-04 21:49:00,82.8,77.8,29.92,SE,131,13.0,14.2,85,0.00,,---,0.00,0.00,VWS V14.01,2013-08-05 02:49:00,
2013-08-04 21:50:00,83.0,78.0,29.92,SE,143,6.0,14.2,85,0.00,,---,0.00,0.00,VWS V14.01,2013-08-05 02:50:00,
2013-08-04 21:53:00,83.2,77.9,29.92,SE,144,6.0,11.2,84,0.00,,---,0.00,0.00,VWS V14.01,2013-08-05 02:53:00,
2013-08-04 21:55:00,83.2,77.9,29.92,SSE,157,6.0,14.2,84,0.00,,---,0.00,0.00,VWS V14.01,2013-08-05 02:55:00,
2013-08-04 21:58:00,83.0,77.7,29.92,SE,133,6.0,21.2,84,0.00,,---,0.00,0.00,VWS V14.01,2013-08-05 02:58:00,
2013-08-04 22:00:00,83.0,78.0,29.93,South,173,1.0,21.2,85,0.00,,---,0.00,0.00,VWS V14.01,2013-08-05 03:00:00,
2013-08-04 22:04:00,83.0,78.0,29.93,SE,143,11.0,14.2,85,0.00,,---,0.00,0.00,VWS V14.01,2013-08-05 03:04:00,
2013-08-04 22:05:00,83.0,78.0,29.93,SE,143,11.0,15.2,85,0.00,,---,0.00,0.00,VWS V14.01,2013-08-05 03:05:00,
2013-08-04 22:09:00,82.8,77.8,29.93,SSE,157,7.0,17.2,85,0.00,,---,0.00,0.00,VWS V14.01,2013-08-05 03:09:00,
2013-08-04 22:10:00,82.6,78.0,29.93,SSE,152,5.0,17.2,86,0.00,,---,0.00,0.00,VWS V14.01,2013-08-05 03:10:00,
2013-08-04 22:14:00,82.6,78.0,29.93,SSE,154,6.0,12.2,86,0.00,,---,0.00,0.00,VWS V14.01,2013-08-05 03:14:00,
2013-08-04 22:15:00,82.6,78.0,29.94,SSE,160,4.0,13.2,86,0.00,,---,0.00,0.00,VWS V14.01,2013-08-05 03:15:00,
2013-08-04 22:18:00,82.6,78.0,29.93,SSW,192,3.0,10.2,86,0.00,,---,0.00,0.00,VWS V14.01,2013-08-05 03:18:00,
2013-08-04 22:20:00,82.4,77.8,29.94,SE,146,12.0,16.2,86,0.00,,---,0.00,0.00,VWS V14.01,2013-08-05 03:20:00,
2013-08-04 22:24:00,82.6,78.0,29.93,SSE,150,11.0,15.2,86,0.00,,---,0.00,0.00,VWS V14.01,2013-08-05 03:24:00,
2013-08-04 22:25:00,82.8,78.2,29.94,South,171,4.0,15.2,86,0.00,,---,0.00,0.00,VWS V14.01,2013-08-05 03:25:00,
2013-08-04 22:29:00,82.8,78.2,29.93,ESE,114,9.0,14.2,86,0.00,,---,0.00,0.00,VWS V14.01,2013-08-05 03:29:00,
2013-08-04 22:30:00,82.6,78.0,29.94,SE,140,5.0,14.2,86,0.00,,---,0.00,0.00,VWS V14.01,2013-08-05 03:30:00,
2013-08-04 22:34:00,82.6,78.3,29.94,SE,128,11.0,14.2,87,0.00,,---,0.00,0.00,VWS V14.01,2013-08-05 03:34:00,
2013-08-04 22:35:00,82.4,78.1,29.94,South,170,11.0,14.2,87,0.00,,---,0.00,0.00,VWS V14.01,2013-08-05 03:35:00,
2013-08-04 22:39:00,82.6,78.3,29.94,SSE,153,7.0,12.2,87,0.00,,---,0.00,0.00,VWS V14.01,2013-08-05 03:39:00,
2013-08-04 22:40:00,82.6,78.3,29.94,SE,144,5.0,14.2,87,0.00,,---,0.00,0.00,VWS V14.01,2013-08-05 03:40:00,
2013-08-04 22:44:00,82.6,78.3,29.94,SE,140,1.0,15.2,87,0.00,,---,0.00,0.00,VWS V14.01,2013-08-05 03:44:00,
2013-08-04 22:45:00,82.6,78.3,29.94,SE,144,2.0,15.2,87,0.00,,---,0.00,0.00,VWS V14.01,2013-08-05 03:45:00,
2013-08-04 22:48:00,82.6,78.3,29.94,SSE,149,4.0,14.2,87,0.00,,---,0.00,0.00,VWS V14.01,2013-08-05 03:48:00,
2013-08-04 22:50:00,82.6,78.3,29.94,SE,132,6.0,14.2,87,0.00,,---,0.00,0.00,VWS V14.01,2013-08-05 03:50:00,
2013-08-04 22:54:00,82.6,78.3,29.94,SE,138,3.0,12.2,87,0.00,,---,0.00,0.00,VWS V14.01,2013-08-05 03:54:00,
2013-08-04 22:55:00,82.8,78.5,29.94,SE,137,2.0,12.2,87,0.00,,---,0.00,0.00,VWS V14.01,2013-08-05 03:55:00,
2013-08-04 22:59:00,83.0,78.4,29.94,SSE,161,4.0,9.2,86,0.00,,---,0.00,0.00,VWS V14.01,2013-08-05 03:59:00,
2013-08-04 23:00:00,83.2,78.6,29.95,SE,132,4.0,9.2,86,0.00,,---,0.00,0.00,VWS V14.01,2013-08-05 04:00:00,
2013-08-04 23:01:00,83.2,78.6,29.95,SE,132,3.0,9.2,86,0.00,,---,0.00,0.00,VWS V14.01,2013-08-05 04:01:00,
2013-08-04 23:05:00,82.8,78.2,29.95,SE,142,6.0,14.2,86,0.00,,---,0.00,0.00,VWS V14.01,2013-08-05 04:05:00,
2013-08-04 23:06:00,82.8,78.5,29.95,SSE,161,5.0,12.2,87,0.00,,---,0.00,0.00,VWS V14.01,2013-08-05 04:06:00,
2013-08-04 23:10:00,82.6,78.3,29.95,SE,140,5.0,12.2,87,0.00,,---,0.00,0.00,VWS V14.01,2013-08-05 04:10:00,
2013-08-04 23:12:00,82.6,78.3,29.95,SE,140,4.0,6.2,87,0.00,,---,0.00,0.00,VWS V14.01,2013-08-05 04:12:00,
2013-08-04 23:15:00,82.4,78.5,29.95,SSE,151,3.0,12.2,88,0.00,,---,0.00,0.00,VWS V14.01,2013-08-05 04:15:00,
2013-08-04 23:17:00,82.4,78.5,29.95,SE,128,6.0,11.2,88,0.00,,---,0.00,0.00,VWS V14.01,2013-08-05 04:17:00,
2013-08-04 23:20:00,82.2,78.3,29.95,SE,134,6.0,12.2,88,0.00,,---,0.00,0.00,VWS V14.01,2013-08-05 04:20:00,
2013-08-04 23:21:00,82.2,78.3,29.95,SSE,150,5.0,7.2,88,0.00,,---,0.00,0.00,VWS V14.01,2013-08-05 04:21:00,
2013-08-04 23:25:00,82.2,78.3,29.95,SE,138,6.0,13.2,88,0.00,,---,0.00,0.00,VWS V14.01,2013-08-05 04:25:00,
2013-08-04 23:27:00,82.2,78.3,29.95,SSE,149,6.0,9.2,88,0.00,,---,0.00,0.00,VWS V14.01,2013-08-05 04:27:00,
2013-08-04 23:30:00,82.2,78.3,29.96,SE,134,10.0,12.2,88,0.00,,---,0.00,0.00,VWS V14.01,2013-08-05 04:30:00,
2013-08-04 23:32:00,82.4,78.5,29.96,SE,138,9.0,13.2,88,0.00,,---,0.00,0.00,VWS V14.01,2013-08-05 04:32:00,
2013-08-04 23:35:00,82.6,78.7,29.96,SE,132,4.0,13.2,88,0.00,,---,0.00,0.00,VWS V14.01,2013-08-05 04:35:00,
2013-08-04 23:37:00,82.6,78.7,29.96,SSE,167,6.0,16.2,88,0.00,,---,0.00,0.00,VWS V14.01,2013-08-05 04:37:00,
2013-08-04 23:40:00,82.6,78.7,29.96,SSE,161,4.0,16.2,88,0.00,,---,0.00,0.00,VWS V14.01,2013-08-05 04:40:00,
2013-08-04 23:41:00,82.6,78.7,29.96,SSE,151,5.0,7.2,88,0.00,,---,0.00,0.00,VWS V14.01,2013-08-05 04:41:00,
2013-08-04 23:45:00,82.6,78.7,29.96,SSE,148,4.0,14.2,88,0.00,,---,0.00,0.00,VWS V14.01,2013-08-05 04:45:00,
2013-08-04 23:46:00,82.6,78.7,29.96,SE,130,12.0,13.2,88,0.00,,---,0.00,0.00,VWS V14.01,2013-08-05 04:46:00,
2013-08-04 23:50:00,82.6,78.7,29.96,SSE,164,9.0,13.2,88,0.00,,---,0.00,0.00,VWS V14.01,2013-08-05 04:50:00,
2013-08-04 23:52:00,82.6,78.7,29.96,South,170,9.0,11.2,88,0.00,,---,0.00,0.00,VWS V14.01,2013-08-05 04:52:00,
2013-08-04 23:55:00,82.4,78.5,29.96,SE,142,6.0,14.2,88,0.00,,---,0.00,0.00,VWS V14.01,2013-08-05 04:55:00,
2013-08-04 23:56:00,82.4,78.5,29.96,SSE,167,4.0,10.2,88,0.00,,---,0.00,0.00,VWS V14.01,2013-08-05 04:56:00,